Time,TemperatureF,DewpointF,PressureIn,WindDirection,WindDirectionDegrees,WindSpeedMPH,WindSpeedGustMPH,Humidity,HourlyPrecipIn,Conditions,Clouds,dailyrainin,SolarRadiationWatts/m^2,SoftwareType,DateUTC
2013-09-27 00:01:00,48.2,44.8,30.09,NNW,340,0.0,0.0,88,0.00,,,0.00,0,WeatherCatV1.20B785,2013-09-27 04:01:00,
2013-09-27 00:02:00,48.2,44.8,30.09,NNW,340,0.0,0.0,88,0.00,,,0.00,0,WeatherCatV1.20B785,2013-09-27 04:02:00,
2013-09-27 00:06:00,48.0,44.6,30.09,NNW,340,0.0,0.0,88,0.00,,,0.00,0,WeatherCatV1.20B785,2013-09-27 04:06:00,
2013-09-27 00:07:00,47.9,44.5,30.09,NNW,340,0.0,0.0,88,0.00,,,0.00,0,WeatherCatV1.20B785,2013-09-27 04:07:00,
2013-09-27 00:08:00,47.8,44.4,30.09,NNW,340,0.0,0.0,88,0.00,,,0.00,0,WeatherCatV1.20B785,2013-09-27 04:08:00,
2013-09-27 00:11:00,47.7,44.3,30.09,NNW,340,0.0,0.0,88,0.00,,,0.00,0,WeatherCatV1.20B785,2013-09-27 04:11:00,
2013-09-27 00:12:00,47.7,44.3,30.09,NNW,340,0.0,0.0,88,0.00,,,0.00,0,WeatherCatV1.20B785,2013-09-27 04:12:00,
2013-09-27 00:13:00,47.7,44.3,30.09,NNW,340,0.0,0.0,88,0.00,,,0.00,0,WeatherCatV1.20B785,2013-09-27 04:13:00,
2013-09-27 00:16:00,47.6,44.2,30.09,NNW,340,0.0,0.0,88,0.00,,,0.00,0,WeatherCatV1.20B785,2013-09-27 04:16:00,
2013-09-27 00:18:00,47.7,44.3,30.09,NNW,340,0.0,0.0,88,0.00,,,0.00,0,WeatherCatV1.20B785,2013-09-27 04:18:00,
2013-09-27 00:21:00,47.6,44.2,30.09,NNW,340,0.0,0.0,88,0.00,,,0.00,0,WeatherCatV1.20B785,2013-09-27 04:21:00,
2013-09-27 00:23:00,47.6,44.2,30.09,NNW,340,0.0,0.0,88,0.00,,,0.00,0,WeatherCatV1.20B785,2013-09-27 04:23:00,
2013-09-27 00:26:00,47.5,44.1,30.09,NNW,340,0.0,0.0,88,0.00,,,0.00,0,WeatherCatV1.20B785,2013-09-27 04:26:00,
2013-09-27 00:27:00,47.5,44.1,30.09,NNW,340,0.0,0.0,88,0.00,,,0.00,0,WeatherCatV1.20B785,2013-09-27 04:27:00,
2013-09-27 00:28:00,47.5,44.1,30.09,NNW,340,0.0,0.0,88,0.00,,,0.00,0,WeatherCatV1.20B785,2013-09-27 04:28:00,
2013-09-27 00:29:00,47.5,44.1,30.09,NNW,340,0.0,0.0,88,0.00,,,0.00,0,WeatherCatV1.20B785,2013-09-27 04:29:00,
2013-09-27 00:31:00,47.5,44.1,30.09,NNW,340,0.0,0.0,88,0.00,,,0.00,0,WeatherCatV1.20B785,2013-09-27 04:31:00,
2013-09-27 00:32:00,47.5,44.1,30.09,NNW,340,0.0,0.0,88,0.00,,,0.00,0,WeatherCatV1.20B785,2013-09-27 04:32:00,
2013-09-27 00:33:00,47.5,44.1,30.09,NNW,340,0.0,0.0,88,0.00,,,0.00,0,WeatherCatV1.20B785,2013-09-27 04:33:00,
2013-09-27 00:34:00,47.4,44.0,30.09,NNW,340,0.0,0.0,88,0.00,,,0.00,0,WeatherCatV1.20B785,2013-09-27 04:34:00,
2013-09-27 00:35:00,47.4,44.0,30.09,NNW,340,0.0,0.0,88,0.00,,,0.00,0,WeatherCatV1.20B785,2013-09-27 04:35:00,
2013-09-27 00:37:00,47.5,43.8,30.09,NNW,340,0.0,0.0,87,0.00,,,0.00,0,WeatherCatV1.20B785,2013-09-27 04:37:00,
2013-09-27 00:38:00,47.4,43.7,30.09,NNW,340,0.0,0.0,87,0.00,,,0.00,0,WeatherCatV1.20B785,2013-09-27 04:38:00,
2013-09-27 00:39:00,47.5,43.8,30.09,NNW,340,0.0,0.0,87,0.00,,,0.00,0,WeatherCatV1.20B785,2013-09-27 04:39:00,
2013-09-27 00:40:00,47.4,44.0,30.09,NNW,340,0.0,0.0,88,0.00,,,0.00,0,WeatherCatV1.20B785,2013-09-27 04:40:00,
2013-09-27 00:42:00,47.3,43.9,30.09,NNW,340,0.0,0.0,88,0.00,,,0.00,0,WeatherCatV1.20B785,2013-09-27 04:42:00,
2013-09-27 00:43:00,47.3,43.9,30.09,NNW,340,0.0,0.0,88,0.00,,,0.00,0,WeatherCatV1.20B785,2013-09-27 04:43:00,
2013-09-27 00:44:00,47.3,43.9,30.09,NNW,340,0.0,0.0,88,0.00,,,0.00,0,WeatherCatV1.20B785,2013-09-27 04:44:00,
2013-09-27 00:45:00,47.3,43.9,30.09,NNW,340,0.0,0.0,88,0.00,,,0.00,0,WeatherCatV1.20B785,2013-09-27 04:45:00,
2013-09-27 00:47:00,47.3,43.9,30.09,NNW,340,0.0,0.0,88,0.00,,,0.00,0,WeatherCatV1.20B785,2013-09-27 04:47:00,
2013-09-27 00:48:00,47.3,43.9,30.09,NNW,340,0.0,0.0,88,0.00,,,0.00,0,WeatherCatV1.20B785,2013-09-27 04:48:00,
2013-09-27 00:49:00,47.3,43.9,30.09,NNW,340,0.0,0.0,88,0.00,,,0.00,0,WeatherCatV1.20B785,2013-09-27 04:49:00,
2013-09-27 00:50:00,47.2,43.8,30.09,NNW,340,0.0,0.0,88,0.00,,,0.00,0,WeatherCatV1.20B785,2013-09-27 04:50:00,
2013-09-27 00:51:00,47.2,43.8,30.09,NNW,340,0.0,0.0,88,0.00,,,0.00,0,WeatherCatV1.20B785,2013-09-27 04:51:00,
2013-09-27 00:53:00,47.0,43.6,30.09,NNW,340,0.0,0.0,88,0.00,,,0.00,0,WeatherCatV1.20B785,2013-09-27 04:53:00,
2013-09-27 00:55:00,46.8,43.4,30.09,NNW,340,0.0,0.0,88,0.00,,,0.00,0,WeatherCatV1.20B785,2013-09-27 04:55:00,
2013-09-27 00:57:00,46.7,43.3,30.09,NNW,340,0.0,0.0,88,0.00,,,0.00,0,WeatherCatV1.20B785,2013-09-27 04:57:00,
2013-09-27 00:58:00,46.6,43.2,30.09,NNW,340,0.0,0.0,88,0.00,,,0.00,0,WeatherCatV1.20B785,2013-09-27 04:58:00,
2013-09-27 00:59:00,46.7,43.3,30.09,NNW,340,0.0,0.0,88,0.00,,,0.00,0,WeatherCatV1.20B785,2013-09-27 04:59:00,
2013-09-27 01:00:00,46.6,43.2,30.09,NNW,340,0.0,0.0,88,0.00,,,0.00,0,WeatherCatV1.20B785,2013-09-27 05:00:00,
2013-09-27 01:01:00,46.6,43.2,30.09,NNW,340,0.0,0.0,88,0.00,,,0.00,0,WeatherCatV1.20B785,2013-09-27 05:01:00,
2013-09-27 01:02:00,46.6,43.2,30.09,NNW,340,0.0,0.0,88,0.00,,,0.00,0,WeatherCatV1.20B785,2013-09-27 05:02:00,
2013-09-27 01:03:00,46.6,43.2,30.09,NNW,340,0.0,0.0,88,0.00,,,0.00,0,WeatherCatV1.20B785,2013-09-27 05:03:00,
2013-09-27 01:04:00,46.7,43.3,30.09,NNW,340,0.0,0.0,88,0.00,,,0.00,0,WeatherCatV1.20B785,2013-09-27 05:04:00,
2013-09-27 01:05:00,46.7,43.0,30.09,NNW,340,0.0,0.0,87,0.00,,,0.00,0,WeatherCatV1.20B785,2013-09-27 05:05:00,
2013-09-27 01:06:00,46.7,43.0,30.09,NNW,340,0.0,0.0,87,0.00,,,0.00,0,WeatherCatV1.20B785,2013-09-27 05:06:00,
2013-09-27 01:07:00,46.8,43.1,30.09,NNW,340,0.0,0.0,87,0.00,,,0.00,0,WeatherCatV1.20B785,2013-09-27 05:07:00,
2013-09-27 01:08:00,46.8,43.1,30.09,NNW,340,0.0,0.0,87,0.00,,,0.00,0,WeatherCatV1.20B785,2013-09-27 05:08:00,
2013-09-27 01:10:00,46.8,43.1,30.09,WNW,287,0.0,1.0,87,0.00,,,0.00,0,WeatherCatV1.20B785,2013-09-27 05:10:00,
2013-09-27 01:11:00,46.9,43.2,30.09,WNW,287,0.0,1.0,87,0.00,,,0.00,0,WeatherCatV1.20B785,2013-09-27 05:11:00,
2013-09-27 01:13:00,46.9,42.9,30.09,WNW,287,0.0,0.0,86,0.00,,,0.00,0,WeatherCatV1.20B785,2013-09-27 05:13:00,
2013-09-27 01:14:00,46.9,43.2,30.09,WNW,287,0.0,0.0,87,0.00,,,0.00,0,WeatherCatV1.20B785,2013-09-27 05:14:00,
2013-09-27 01:15:00,46.9,43.2,30.09,WNW,287,0.0,0.0,87,0.00,,,0.00,0,WeatherCatV1.20B785,2013-09-27 05:15:00,
2013-09-27 01:16:00,46.9,43.2,30.09,WNW,287,0.0,0.0,87,0.00,,,0.00,0,WeatherCatV1.20B785,2013-09-27 05:16:00,
2013-09-27 01:18:00,46.9,43.2,30.09,WNW,287,0.0,0.0,87,0.00,,,0.00,0,WeatherCatV1.20B785,2013-09-27 05:18:00,
2013-09-27 01:19:00,46.9,43.2,30.09,WNW,287,0.0,0.0,87,0.00,,,0.00,0,WeatherCatV1.20B785,2013-09-27 05:19:00,
2013-09-27 01:21:00,46.9,43.2,30.09,WNW,287,0.0,0.0,87,0.00,,,0.00,0,WeatherCatV1.20B785,2013-09-27 05:21:00,
2013-09-27 01:23:00,46.9,43.2,30.09,WNW,287,0.0,0.0,87,0.00,,,0.00,0,WeatherCatV1.20B785,2013-09-27 05:23:00,
2013-09-27 01:24:00,46.9,43.2,30.09,WNW,287,0.0,0.0,87,0.00,,,0.00,0,WeatherCatV1.20B785,2013-09-27 05:24:00,
2013-09-27 01:26:00,47.0,43.3,30.09,WNW,287,0.0,0.0,87,0.00,,,0.00,0,WeatherCatV1.20B785,2013-09-27 05:26:00,
2013-09-27 01:28:00,47.0,43.0,30.09,WNW,287,0.0,0.0,86,0.00,,,0.00,0,WeatherCatV1.20B785,2013-09-27 05:28:00,
2013-09-27 01:29:00,47.0,43.0,30.09,WNW,287,0.0,0.0,86,0.00,,,0.00,0,WeatherCatV1.20B785,2013-09-27 05:29:00,
2013-09-27 01:30:00,47.1,43.1,30.09,WNW,287,0.0,0.0,86,0.00,,,0.00,0,WeatherCatV1.20B785,2013-09-27 05:30:00,
2013-09-27 01:31:00,47.1,43.1,30.09,WNW,287,0.0,0.0,86,0.00,,,0.00,0,WeatherCatV1.20B785,2013-09-27 05:31:00,
2013-09-27 01:33:00,47.0,43.3,30.09,WNW,287,0.0,0.0,87,0.00,,,0.00,0,WeatherCatV1.20B785,2013-09-27 05:33:00,
2013-09-27 01:34:00,47.0,43.3,30.09,WNW,287,0.0,0.0,87,0.00,,,0.00,0,WeatherCatV1.20B785,2013-09-27 05:34:00,
2013-09-27 01:36:00,46.9,43.2,30.09,WNW,287,0.0,0.0,87,0.00,,,0.00,0,WeatherCatV1.20B785,2013-09-27 05:36:00,
2013-09-27 01:38:00,46.8,43.4,30.10,WNW,287,0.0,0.0,88,0.00,,,0.00,0,WeatherCatV1.20B785,2013-09-27 05:38:00,
2013-09-27 01:39:00,46.7,43.3,30.10,WNW,287,0.0,0.0,88,0.00,,,0.00,0,WeatherCatV1.20B785,2013-09-27 05:39:00,
2013-09-27 01:41:00,46.6,43.2,30.10,WNW,287,0.0,1.0,88,0.00,,,0.00,0,WeatherCatV1.20B785,2013-09-27 05:41:00,
2013-09-27 01:44:00,46.4,43.0,30.10,WNW,287,0.0,0.0,88,0.00,,,0.00,0,WeatherCatV1.20B785,2013-09-27 05:44:00,
2013-09-27 01:45:00,46.4,43.0,30.10,WNW,287,0.0,0.0,88,0.00,,,0.00,0,WeatherCatV1.20B785,2013-09-27 05:45:00,
2013-09-27 01:46:00,46.4,42.7,30.10,WNW,287,0.0,0.0,87,0.00,,,0.00,0,WeatherCatV1.20B785,2013-09-27 05:46:00,
2013-09-27 01:47:00,46.4,42.7,30.10,WNW,287,0.0,0.0,87,0.00,,,0.00,0,WeatherCatV1.20B785,2013-09-27 05:47:00,
2013-09-27 01:50:00,46.4,42.7,30.10,WNW,288,0.0,0.0,87,0.00,,,0.00,0,WeatherCatV1.20B785,2013-09-27 05:50:00,
2013-09-27 01:52:00,46.4,42.7,30.10,WNW,289,0.0,0.0,87,0.00,,,0.00,0,WeatherCatV1.20B785,2013-09-27 05:52:00,
2013-09-27 01:55:00,46.2,42.5,30.10,WNW,289,0.0,0.0,87,0.00,,,0.00,0,WeatherCatV1.20B785,2013-09-27 05:55:00,
2013-09-27 01:56:00,46.2,42.5,30.10,WNW,289,0.0,0.0,87,0.00,,,0.00,0,WeatherCatV1.20B785,2013-09-27 05:56:00,
2013-09-27 01:57:00,46.1,42.5,30.10,WNW,289,0.0,0.0,87,0.00,,,0.00,0,WeatherCatV1.20B785,2013-09-27 05:57:00,
2013-09-27 02:01:00,46.1,42.5,30.10,WNW,289,0.0,0.0,87,0.00,,,0.00,0,WeatherCatV1.20B785,2013-09-27 06:01:00,
2013-09-27 02:02:00,46.1,42.5,30.10,WNW,289,0.0,0.0,87,0.00,,,0.00,0,WeatherCatV1.20B785,2013-09-27 06:02:00,
2013-09-27 02:06:00,46.0,42.3,30.10,WNW,289,0.0,0.0,87,0.00,,,0.00,0,WeatherCatV1.20B785,2013-09-27 06:06:00,
2013-09-27 02:07:00,46.0,42.3,30.10,WNW,289,0.0,0.0,87,0.00,,,0.00,0,WeatherCatV1.20B785,2013-09-27 06:07:00,
2013-09-27 02:08:00,46.0,42.3,30.10,WNW,289,0.0,0.0,87,0.00,,,0.00,0,WeatherCatV1.20B785,2013-09-27 06:08:00,
2013-09-27 02:12:00,46.0,42.3,30.10,WNW,289,0.0,0.0,87,0.00,,,0.00,0,WeatherCatV1.20B785,2013-09-27 06:12:00,
2013-09-27 02:13:00,45.9,42.2,30.10,WNW,289,0.0,0.0,87,0.00,,,0.00,0,WeatherCatV1.20B785,2013-09-27 06:13:00,
2013-09-27 02:17:00,45.7,42.1,30.10,WNW,289,0.0,0.0,87,0.00,,,0.00,0,WeatherCatV1.20B785,2013-09-27 06:17:00,
2013-09-27 02:18:00,45.7,42.1,30.10,WNW,289,0.0,0.0,87,0.00,,,0.00,0,WeatherCatV1.20B785,2013-09-27 06:18:00,
2013-09-27 02:23:00,45.6,42.0,30.10,WNW,289,0.0,0.0,87,0.00,,,0.00,0,WeatherCatV1.20B785,2013-09-27 06:23:00,
2013-09-27 02:24:00,45.6,42.0,30.10,WNW,289,0.0,0.0,87,0.00,,,0.00,0,WeatherCatV1.20B785,2013-09-27 06:24:00,
2013-09-27 02:28:00,45.6,42.0,30.10,WNW,289,0.0,0.0,87,0.00,,,0.00,0,WeatherCatV1.20B785,2013-09-27 06:28:00,
2013-09-27 02:29:00,45.6,42.0,30.11,WNW,289,0.0,0.0,87,0.00,,,0.00,0,WeatherCatV1.20B785,2013-09-27 06:29:00,
2013-09-27 02:30:00,45.6,42.0,30.10,WNW,289,0.0,0.0,87,0.00,,,0.00,0,WeatherCatV1.20B785,2013-09-27 06:30:00,
2013-09-27 02:33:00,45.5,41.9,30.11,WNW,289,0.0,0.0,87,0.00,,,0.00,0,WeatherCatV1.20B785,2013-09-27 06:33:00,
2013-09-27 02:34:00,45.5,41.9,30.11,WNW,289,0.0,0.0,87,0.00,,,0.00,0,WeatherCatV1.20B785,2013-09-27 06:34:00,
2013-09-27 02:36:00,45.5,41.9,30.11,WNW,289,0.0,0.0,87,0.00,,,0.00,0,WeatherCatV1.20B785,2013-09-27 06:36:00,
2013-09-27 02:38:00,45.5,41.9,30.11,WNW,289,0.0,0.0,87,0.00,,,0.00,0,WeatherCatV1.20B785,2013-09-27 06:38:00,
2013-09-27 02:39:00,45.5,41.9,30.11,WNW,289,0.0,0.0,87,0.00,,,0.00,0,WeatherCatV1.20B785,2013-09-27 06:39:00,
2013-09-27 02:41:00,45.5,41.9,30.11,WNW,289,0.0,0.0,87,0.00,,,0.00,0,WeatherCatV1.20B785,2013-09-27 06:41:00,
2013-09-27 02:44:00,45.5,41.9,30.11,WNW,289,0.0,0.0,87,0.00,,,0.00,0,WeatherCatV1.20B785,2013-09-27 06:44:00,
2013-09-27 02:46:00,45.4,41.8,30.11,WNW,289,0.0,0.0,87,0.00,,,0.00,0,WeatherCatV1.20B785,2013-09-27 06:46:00,
2013-09-27 02:49:00,45.3,41.7,30.11,WNW,289,0.0,0.0,87,0.00,,,0.00,0,WeatherCatV1.20B785,2013-09-27 06:49:00,
2013-09-27 02:50:00,45.3,41.7,30.11,WNW,289,0.0,0.0,87,0.00,,,0.00,0,WeatherCatV1.20B785,2013-09-27 06:50:00,
2013-09-27 02:53:00,45.2,41.6,30.11,WNW,289,0.0,0.0,87,0.00,,,0.00,0,WeatherCatV1.20B785,2013-09-27 06:53:00,
2013-09-27 02:54:00,45.2,41.6,30.11,WNW,289,0.0,0.0,87,0.00,,,0.00,0,WeatherCatV1.20B785,2013-09-27 06:54:00,
2013-09-27 02:55:00,45.2,41.6,30.11,WNW,289,0.0,0.0,87,0.00,,,0.00,0,WeatherCatV1.20B785,2013-09-27 06:55:00,
2013-09-27 02:58:00,45.1,41.5,30.11,WNW,289,0.0,0.0,87,0.00,,,0.00,0,WeatherCatV1.20B785,2013-09-27 06:58:00,
2013-09-27 03:00:00,45.1,41.5,30.11,WNW,289,0.0,0.0,87,0.00,,,0.00,0,WeatherCatV1.20B785,2013-09-27 07:00:00,
2013-09-27 03:01:00,45.1,41.5,30.11,WNW,289,0.0,0.0,87,0.00,,,0.00,0,WeatherCatV1.20B785,2013-09-27 07:01:00,
2013-09-27 03:03:00,45.0,41.4,30.11,WNW,289,0.0,0.0,87,0.00,,,0.00,0,WeatherCatV1.20B785,2013-09-27 07:03:00,
2013-09-27 03:05:00,45.0,41.4,30.11,WNW,289,0.0,0.0,87,0.00,,,0.00,0,WeatherCatV1.20B785,2013-09-27 07:05:00,
2013-09-27 03:06:00,45.0,41.4,30.11,WNW,289,0.0,0.0,87,0.00,,,0.00,0,WeatherCatV1.20B785,2013-09-27 07:06:00,
2013-09-27 03:08:00,45.0,41.4,30.11,WNW,289,0.0,0.0,87,0.00,,,0.00,0,WeatherCatV1.20B785,2013-09-27 07:08:00,
2013-09-27 03:10:00,44.9,41.3,30.11,WNW,289,0.0,0.0,87,0.00,,,0.00,0,WeatherCatV1.20B785,2013-09-27 07:10:00,
2013-09-27 03:11:00,44.9,41.3,30.11,WNW,289,0.0,0.0,87,0.00,,,0.00,0,WeatherCatV1.20B785,2013-09-27 07:11:00,
2013-09-27 03:14:00,44.8,41.2,30.11,WNW,289,0.0,0.0,87,0.00,,,0.00,0,WeatherCatV1.20B785,2013-09-27 07:14:00,
2013-09-27 03:15:00,44.8,41.5,30.11,WNW,289,0.0,0.0,88,0.00,,,0.00,0,WeatherCatV1.20B785,2013-09-27 07:15:00,
2013-09-27 03:16:00,44.7,41.4,30.11,WNW,289,0.0,0.0,88,0.00,,,0.00,0,WeatherCatV1.20B785,2013-09-27 07:16:00,
2013-09-27 03:19:00,44.6,41.3,30.11,WNW,289,0.0,0.0,88,0.00,,,0.00,0,WeatherCatV1.20B785,2013-09-27 07:19:00,
2013-09-27 03:21:00,44.6,41.3,30.11,WNW,289,0.0,0.0,88,0.00,,,0.00,0,WeatherCatV1.20B785,2013-09-27 07:21:00,
2013-09-27 03:22:00,44.5,41.2,30.11,WNW,289,0.0,1.0,88,0.00,,,0.00,0,WeatherCatV1.20B785,2013-09-27 07:22:00,
2013-09-27 03:24:00,44.4,41.1,30.11,WNW,289,0.0,0.0,88,0.00,,,0.00,0,WeatherCatV1.20B785,2013-09-27 07:24:00,
2013-09-27 03:26:00,44.4,41.1,30.11,WNW,289,0.0,0.0,88,0.00,,,0.00,0,WeatherCatV1.20B785,2013-09-27 07:26:00,
2013-09-27 03:27:00,44.4,41.1,30.11,WNW,289,0.0,0.0,88,0.00,,,0.00,0,WeatherCatV1.20B785,2013-09-27 07:27:00,
2013-09-27 03:29:00,44.3,40.7,30.11,WNW,289,0.0,0.0,87,0.00,,,0.00,0,WeatherCatV1.20B785,2013-09-27 07:29:00,
2013-09-27 03:31:00,44.3,40.7,30.11,WNW,289,0.0,0.0,87,0.00,,,0.00,0,WeatherCatV1.20B785,2013-09-27 07:31:00,
2013-09-27 03:32:00,44.3,40.7,30.11,WNW,289,0.0,0.0,87,0.00,,,0.00,0,WeatherCatV1.20B785,2013-09-27 07:32:00,
2013-09-27 03:35:00,44.2,40.9,30.11,WNW,289,0.0,0.0,88,0.00,,,0.00,0,WeatherCatV1.20B785,2013-09-27 07:35:00,
2013-09-27 03:36:00,44.2,40.6,30.11,WNW,289,0.0,0.0,87,0.00,,,0.00,0,WeatherCatV1.20B785,2013-09-27 07:36:00,
2013-09-27 03:37:00,44.1,40.5,30.11,WNW,289,0.0,0.0,87,0.00,,,0.00,0,WeatherCatV1.20B785,2013-09-27 07:37:00,
2013-09-27 03:38:00,44.1,40.5,30.11,WNW,289,0.0,0.0,87,0.00,,,0.00,0,WeatherCatV1.20B785,2013-09-27 07:38:00,
2013-09-27 03:40:00,44.1,40.5,30.11,WNW,289,0.0,0.0,87,0.00,,,0.00,0,WeatherCatV1.20B785,2013-09-27 07:40:00,
2013-09-27 03:41:00,44.1,40.5,30.11,WNW,289,0.0,0.0,87,0.00,,,0.00,0,WeatherCatV1.20B785,2013-09-27 07:41:00,
2013-09-27 03:42:00,44.2,40.6,30.11,WNW,289,0.0,0.0,87,0.00,,,0.00,0,WeatherCatV1.20B785,2013-09-27 07:42:00,
2013-09-27 03:44:00,44.2,40.6,30.11,WNW,289,0.0,0.0,87,0.00,,,0.00,0,WeatherCatV1.20B785,2013-09-27 07:44:00,
2013-09-27 03:45:00,44.2,40.6,30.11,WNW,289,0.0,0.0,87,0.00,,,0.00,0,WeatherCatV1.20B785,2013-09-27 07:45:00,
2013-09-27 03:46:00,44.2,40.6,30.11,WNW,289,0.0,0.0,87,0.00,,,0.00,0,WeatherCatV1.20B785,2013-09-27 07:46:00,
2013-09-27 03:47:00,44.3,40.7,30.11,WNW,289,0.0,0.0,87,0.00,,,0.00,0,WeatherCatV1.20B785,2013-09-27 07:47:00,
2013-09-27 03:49:00,44.3,40.7,30.11,WNW,289,0.0,0.0,87,0.00,,,0.00,0,WeatherCatV1.20B785,2013-09-27 07:49:00,
2013-09-27 03:51:00,44.3,40.7,30.11,WNW,289,0.0,0.0,87,0.00,,,0.00,0,WeatherCatV1.20B785,2013-09-27 07:51:00,
2013-09-27 03:52:00,44.3,40.7,30.11,WNW,289,0.0,0.0,87,0.00,,,0.00,0,WeatherCatV1.20B785,2013-09-27 07:52:00,
2013-09-27 03:55:00,44.3,40.7,30.11,WNW,289,0.0,0.0,87,0.00,,,0.00,0,WeatherCatV1.20B785,2013-09-27 07:55:00,
2013-09-27 03:56:00,44.3,40.7,30.11,WNW,289,0.0,0.0,87,0.00,,,0.00,0,WeatherCatV1.20B785,2013-09-27 07:56:00,
2013-09-27 03:57:00,44.3,40.7,30.11,WNW,289,0.0,0.0,87,0.00,,,0.00,0,WeatherCatV1.20B785,2013-09-27 07:57:00,
2013-09-27 03:58:00,44.3,40.7,30.11,WNW,289,0.0,0.0,87,0.00,,,0.00,0,WeatherCatV1.20B785,2013-09-27 07:58:00,
2013-09-27 04:00:00,44.3,40.7,30.11,WNW,289,0.0,0.0,87,0.00,,,0.00,0,WeatherCatV1.20B785,2013-09-27 08:00:00,
2013-09-27 04:02:00,44.2,40.6,30.11,WNW,289,0.0,0.0,87,0.00,,,0.00,0,WeatherCatV1.20B785,2013-09-27 08:02:00,
2013-09-27 04:03:00,44.2,40.6,30.11,WNW,289,0.0,0.0,87,0.00,,,0.00,0,WeatherCatV1.20B785,2013-09-27 08:03:00,
2013-09-27 04:05:00,44.2,40.6,30.11,WNW,289,0.0,0.0,87,0.00,,,0.00,0,WeatherCatV1.20B785,2013-09-27 08:05:00,
2013-09-27 04:07:00,44.2,40.6,30.11,WNW,289,0.0,0.0,87,0.00,,,0.00,0,WeatherCatV1.20B785,2013-09-27 08:07:00,
2013-09-27 04:08:00,44.1,40.5,30.11,WNW,289,0.0,0.0,87,0.00,,,0.00,0,WeatherCatV1.20B785,2013-09-27 08:08:00,
2013-09-27 04:11:00,44.0,40.4,30.11,WNW,289,0.0,0.0,87,0.00,,,0.00,0,WeatherCatV1.20B785,2013-09-27 08:11:00,
2013-09-27 04:12:00,44.0,40.7,30.11,WNW,289,0.0,0.0,88,0.00,,,0.00,0,WeatherCatV1.20B785,2013-09-27 08:12:00,
2013-09-27 04:13:00,43.9,40.6,30.11,WNW,289,0.0,0.0,88,0.00,,,0.00,0,WeatherCatV1.20B785,2013-09-27 08:13:00,
2013-09-27 04:14:00,43.9,40.6,30.11,WNW,289,0.0,0.0,88,0.00,,,0.00,0,WeatherCatV1.20B785,2013-09-27 08:14:00,
2013-09-27 04:16:00,43.7,40.4,30.11,WNW,289,0.0,0.0,88,0.00,,,0.00,0,WeatherCatV1.20B785,2013-09-27 08:16:00,
2013-09-27 04:18:00,43.7,40.4,30.12,WNW,289,0.0,0.0,88,0.00,,,0.00,0,WeatherCatV1.20B785,2013-09-27 08:18:00,
2013-09-27 04:19:00,43.7,40.4,30.12,WNW,289,0.0,0.0,88,0.00,,,0.00,0,WeatherCatV1.20B785,2013-09-27 08:19:00,
2013-09-27 04:21:00,43.6,40.3,30.11,WNW,289,0.0,0.0,88,0.00,,,0.00,0,WeatherCatV1.20B785,2013-09-27 08:21:00,
2013-09-27 04:23:00,43.6,40.3,30.11,WNW,289,0.0,0.0,88,0.00,,,0.00,0,WeatherCatV1.20B785,2013-09-27 08:23:00,
2013-09-27 04:24:00,43.6,40.0,30.11,WNW,289,0.0,0.0,87,0.00,,,0.00,0,WeatherCatV1.20B785,2013-09-27 08:24:00,
2013-09-27 04:27:00,43.6,40.0,30.11,WNW,289,0.0,0.0,87,0.00,,,0.00,0,WeatherCatV1.20B785,2013-09-27 08:27:00,
2013-09-27 04:28:00,43.6,40.0,30.11,WNW,289,0.0,0.0,87,0.00,,,0.00,0,WeatherCatV1.20B785,2013-09-27 08:28:00,
2013-09-27 04:29:00,43.6,40.0,30.12,WNW,289,0.0,0.0,87,0.00,,,0.00,0,WeatherCatV1.20B785,2013-09-27 08:29:00,
2013-09-27 04:31:00,43.6,40.0,30.12,WNW,289,0.0,0.0,87,0.00,,,0.00,0,WeatherCatV1.20B785,2013-09-27 08:31:00,
2013-09-27 04:32:00,43.5,39.9,30.12,WNW,289,0.0,0.0,87,0.00,,,0.00,0,WeatherCatV1.20B785,2013-09-27 08:32:00,
2013-09-27 04:34:00,43.5,39.9,30.12,WNW,289,0.0,0.0,87,0.00,,,0.00,0,WeatherCatV1.20B785,2013-09-27 08:34:00,
2013-09-27 04:35:00,43.4,40.1,30.12,WNW,289,0.0,0.0,88,0.00,,,0.00,0,WeatherCatV1.20B785,2013-09-27 08:35:00,
2013-09-27 04:36:00,43.3,40.0,30.12,WNW,289,0.0,0.0,88,0.00,,,0.00,0,WeatherCatV1.20B785,2013-09-27 08:36:00,
2013-09-27 04:37:00,43.3,40.0,30.12,WNW,289,0.0,0.0,88,0.00,,,0.00,0,WeatherCatV1.20B785,2013-09-27 08:37:00,
2013-09-27 04:40:00,43.3,39.7,30.12,WNW,289,0.0,0.0,87,0.00,,,0.00,0,WeatherCatV1.20B785,2013-09-27 08:40:00,
2013-09-27 04:41:00,43.3,39.7,30.12,WNW,289,0.0,0.0,87,0.00,,,0.00,0,WeatherCatV1.20B785,2013-09-27 08:41:00,
2013-09-27 04:43:00,43.4,39.8,30.12,WNW,289,0.0,0.0,87,0.00,,,0.00,0,WeatherCatV1.20B785,2013-09-27 08:43:00,
2013-09-27 04:45:00,43.5,39.9,30.12,WNW,289,0.0,0.0,87,0.00,,,0.00,0,WeatherCatV1.20B785,2013-09-27 08:45:00,
2013-09-27 04:46:00,43.5,39.9,30.12,WNW,289,0.0,0.0,87,0.00,,,0.00,0,WeatherCatV1.20B785,2013-09-27 08:46:00,
2013-09-27 04:47:00,43.6,40.0,30.12,WNW,289,0.0,0.0,87,0.00,,,0.00,0,WeatherCatV1.20B785,2013-09-27 08:47:00,
2013-09-27 04:49:00,43.7,40.1,30.12,WNW,289,0.0,0.0,87,0.00,,,0.00,0,WeatherCatV1.20B785,2013-09-27 08:49:00,
2013-09-27 04:50:00,43.7,40.1,30.12,WNW,289,0.0,0.0,87,0.00,,,0.00,0,WeatherCatV1.20B785,2013-09-27 08:50:00,
2013-09-27 04:52:00,43.8,39.9,30.12,WNW,289,0.0,0.0,86,0.00,,,0.00,0,WeatherCatV1.20B785,2013-09-27 08:52:00,
2013-09-27 04:53:00,43.8,39.9,30.12,WNW,289,0.0,0.0,86,0.00,,,0.00,0,WeatherCatV1.20B785,2013-09-27 08:53:00,
2013-09-27 04:54:00,43.9,40.0,30.12,WNW,289,0.0,0.0,86,0.00,,,0.00,0,WeatherCatV1.20B785,2013-09-27 08:54:00,
2013-09-27 04:55:00,43.9,40.0,30.12,WNW,289,0.0,0.0,86,0.00,,,0.00,0,WeatherCatV1.20B785,2013-09-27 08:55:00,
2013-09-27 04:57:00,44.0,40.1,30.12,WNW,289,0.0,0.0,86,0.00,,,0.00,0,WeatherCatV1.20B785,2013-09-27 08:57:00,
2013-09-27 04:58:00,44.0,40.1,30.12,WNW,289,0.0,0.0,86,0.00,,,0.00,0,WeatherCatV1.20B785,2013-09-27 08:58:00,
2013-09-27 04:59:00,44.0,40.1,30.12,WNW,289,0.0,0.0,86,0.00,,,0.00,0,WeatherCatV1.20B785,2013-09-27 08:59:00,
2013-09-27 05:01:00,44.0,40.1,30.12,WNW,289,0.0,0.0,86,0.00,,,0.00,0,WeatherCatV1.20B785,2013-09-27 09:01:00,
2013-09-27 05:02:00,44.0,40.1,30.12,WNW,289,0.0,0.0,86,0.00,,,0.00,0,WeatherCatV1.20B785,2013-09-27 09:02:00,
2013-09-27 05:03:00,44.0,40.1,30.12,WNW,289,0.0,0.0,86,0.00,,,0.00,0,WeatherCatV1.20B785,2013-09-27 09:03:00,
2013-09-27 05:04:00,44.0,40.4,30.12,WNW,289,0.0,0.0,87,0.00,,,0.00,0,WeatherCatV1.20B785,2013-09-27 09:04:00,
2013-09-27 05:05:00,44.0,40.4,30.12,WNW,289,0.0,0.0,87,0.00,,,0.00,0,WeatherCatV1.20B785,2013-09-27 09:05:00,
2013-09-27 05:06:00,43.9,40.3,30.12,WNW,289,0.0,0.0,87,0.00,,,0.00,0,WeatherCatV1.20B785,2013-09-27 09:06:00,
2013-09-27 05:08:00,43.9,40.3,30.12,WNW,289,0.0,0.0,87,0.00,,,0.00,0,WeatherCatV1.20B785,2013-09-27 09:08:00,
2013-09-27 05:09:00,43.8,40.2,30.12,WNW,289,0.0,0.0,87,0.00,,,0.00,0,WeatherCatV1.20B785,2013-09-27 09:09:00,
2013-09-27 05:10:00,43.8,40.2,30.12,WNW,289,0.0,0.0,87,0.00,,,0.00,0,WeatherCatV1.20B785,2013-09-27 09:10:00,
2013-09-27 05:11:00,43.7,40.1,30.12,WNW,289,0.0,0.0,87,0.00,,,0.00,0,WeatherCatV1.20B785,2013-09-27 09:11:00,
2013-09-27 05:13:00,43.6,40.0,30.12,WNW,289,0.0,0.0,87,0.00,,,0.00,0,WeatherCatV1.20B785,2013-09-27 09:13:00,
2013-09-27 05:14:00,43.6,40.0,30.12,WNW,289,0.0,0.0,87,0.00,,,0.00,0,WeatherCatV1.20B785,2013-09-27 09:14:00,
2013-09-27 05:16:00,43.5,39.9,30.12,WNW,289,0.0,0.0,87,0.00,,,0.00,0,WeatherCatV1.20B785,2013-09-27 09:16:00,
2013-09-27 05:18:00,43.5,39.9,30.12,WNW,289,0.0,0.0,87,0.00,,,0.00,0,WeatherCatV1.20B785,2013-09-27 09:18:00,
2013-09-27 05:19:00,43.4,39.8,30.12,WNW,289,0.0,0.0,87,0.00,,,0.00,0,WeatherCatV1.20B785,2013-09-27 09:19:00,
2013-09-27 05:21:00,43.4,39.8,30.12,WNW,289,0.0,0.0,87,0.00,,,0.00,0,WeatherCatV1.20B785,2013-09-27 09:21:00,
2013-09-27 05:22:00,43.4,39.8,30.12,WNW,289,0.0,0.0,87,0.00,,,0.00,0,WeatherCatV1.20B785,2013-09-27 09:22:00,
2013-09-27 05:24:00,43.4,39.8,30.12,WNW,289,0.0,0.0,87,0.00,,,0.00,0,WeatherCatV1.20B785,2013-09-27 09:24:00,
2013-09-27 05:25:00,43.4,39.8,30.12,WNW,289,0.0,0.0,87,0.00,,,0.00,0,WeatherCatV1.20B785,2013-09-27 09:25:00,
2013-09-27 05:26:00,43.3,39.7,30.12,WNW,289,0.0,0.0,87,0.00,,,0.00,0,WeatherCatV1.20B785,2013-09-27 09:26:00,
2013-09-27 05:27:00,43.3,39.7,30.12,WNW,289,0.0,0.0,87,0.00,,,0.00,0,WeatherCatV1.20B785,2013-09-27 09:27:00,
2013-09-27 05:29:00,43.3,39.7,30.12,WNW,289,0.0,0.0,87,0.00,,,0.00,0,WeatherCatV1.20B785,2013-09-27 09:29:00,
2013-09-27 05:30:00,43.3,39.7,30.12,WNW,289,0.0,0.0,87,0.00,,,0.00,0,WeatherCatV1.20B785,2013-09-27 09:30:00,
2013-09-27 05:32:00,43.3,39.7,30.12,WNW,289,0.0,0.0,87,0.00,,,0.00,0,WeatherCatV1.20B785,2013-09-27 09:32:00,
2013-09-27 05:34:00,43.2,39.6,30.12,WNW,289,0.0,0.0,87,0.00,,,0.00,0,WeatherCatV1.20B785,2013-09-27 09:34:00,
2013-09-27 05:35:00,43.1,39.5,30.12,WNW,289,0.0,0.0,87,0.00,,,0.00,0,WeatherCatV1.20B785,2013-09-27 09:35:00,
2013-09-27 05:37:00,43.0,39.4,30.12,WNW,289,0.0,0.0,87,0.00,,,0.00,0,WeatherCatV1.20B785,2013-09-27 09:37:00,
2013-09-27 05:38:00,43.0,39.4,30.12,WNW,289,0.0,0.0,87,0.00,,,0.00,0,WeatherCatV1.20B785,2013-09-27 09:38:00,
2013-09-27 05:39:00,42.9,39.3,30.12,WNW,289,0.0,0.0,87,0.00,,,0.00,0,WeatherCatV1.20B785,2013-09-27 09:39:00,
2013-09-27 05:41:00,42.9,39.3,30.12,WNW,289,0.0,0.0,87,0.00,,,0.00,0,WeatherCatV1.20B785,2013-09-27 09:41:00,
2013-09-27 05:42:00,42.9,39.3,30.12,WNW,289,0.0,0.0,87,0.00,,,0.00,0,WeatherCatV1.20B785,2013-09-27 09:42:00,
2013-09-27 05:43:00,42.9,39.3,30.12,WNW,289,0.0,0.0,87,0.00,,,0.00,0,WeatherCatV1.20B785,2013-09-27 09:43:00,
2013-09-27 05:45:00,42.8,39.2,30.12,WNW,289,0.0,0.0,87,0.00,,,0.00,0,WeatherCatV1.20B785,2013-09-27 09:45:00,
2013-09-27 05:46:00,42.9,39.3,30.12,WNW,289,0.0,0.0,87,0.00,,,0.00,0,WeatherCatV1.20B785,2013-09-27 09:46:00,
2013-09-27 05:47:00,42.9,39.3,30.12,WNW,289,0.0,0.0,87,0.00,,,0.00,0,WeatherCatV1.20B785,2013-09-27 09:47:00,
2013-09-27 05:48:00,42.9,39.3,30.13,WNW,289,0.0,0.0,87,0.00,,,0.00,0,WeatherCatV1.20B785,2013-09-27 09:48:00,
2013-09-27 05:50:00,42.9,39.3,30.13,WNW,289,0.0,0.0,87,0.00,,,0.00,0,WeatherCatV1.20B785,2013-09-27 09:50:00,
2013-09-27 05:51:00,42.9,39.3,30.13,WNW,289,0.0,0.0,87,0.00,,,0.00,0,WeatherCatV1.20B785,2013-09-27 09:51:00,
2013-09-27 05:52:00,42.9,39.3,30.13,WNW,289,0.0,0.0,87,0.00,,,0.00,0,WeatherCatV1.20B785,2013-09-27 09:52:00,
2013-09-27 05:53:00,43.0,39.4,30.13,WNW,289,0.0,0.0,87,0.00,,,0.00,0,WeatherCatV1.20B785,2013-09-27 09:53:00,
2013-09-27 05:55:00,43.1,39.5,30.13,WNW,289,0.0,0.0,87,0.00,,,0.00,0,WeatherCatV1.20B785,2013-09-27 09:55:00,
2013-09-27 05:57:00,43.1,39.5,30.13,WNW,289,0.0,0.0,87,0.00,,,0.00,0,WeatherCatV1.20B785,2013-09-27 09:57:00,
2013-09-27 05:58:00,43.1,39.5,30.13,WNW,289,0.0,0.0,87,0.00,,,0.00,0,WeatherCatV1.20B785,2013-09-27 09:58:00,
2013-09-27 05:59:00,43.1,39.5,30.13,WNW,289,0.0,0.0,87,0.00,,,0.00,0,WeatherCatV1.20B785,2013-09-27 09:59:00,
2013-09-27 06:01:00,43.2,39.6,30.13,WNW,289,0.0,0.0,87,0.00,,,0.00,0,WeatherCatV1.20B785,2013-09-27 10:01:00,
2013-09-27 06:02:00,43.2,39.6,30.13,WNW,289,0.0,0.0,87,0.00,,,0.00,0,WeatherCatV1.20B785,2013-09-27 10:02:00,
2013-09-27 06:03:00,43.3,39.7,30.13,WNW,289,0.0,0.0,87,0.00,,,0.00,0,WeatherCatV1.20B785,2013-09-27 10:03:00,
2013-09-27 06:04:00,43.3,39.4,30.13,WNW,289,0.0,0.0,86,0.00,,,0.00,0,WeatherCatV1.20B785,2013-09-27 10:04:00,
2013-09-27 06:06:00,43.4,39.8,30.13,WNW,289,0.0,0.0,87,0.00,,,0.00,0,WeatherCatV1.20B785,2013-09-27 10:06:00,
2013-09-27 06:07:00,43.4,39.8,30.13,WNW,289,0.0,0.0,87,0.00,,,0.00,0,WeatherCatV1.20B785,2013-09-27 10:07:00,
2013-09-27 06:08:00,43.4,39.8,30.13,WNW,289,0.0,0.0,87,0.00,,,0.00,0,WeatherCatV1.20B785,2013-09-27 10:08:00,
2013-09-27 06:09:00,43.4,39.8,30.13,WNW,289,0.0,0.0,87,0.00,,,0.00,0,WeatherCatV1.20B785,2013-09-27 10:09:00,
2013-09-27 06:11:00,43.5,39.9,30.13,WNW,289,0.0,0.0,87,0.00,,,0.00,0,WeatherCatV1.20B785,2013-09-27 10:11:00,
2013-09-27 06:13:00,43.5,39.9,30.13,WNW,289,0.0,0.0,87,0.00,,,0.00,0,WeatherCatV1.20B785,2013-09-27 10:13:00,
2013-09-27 06:14:00,43.5,39.9,30.13,WNW,289,0.0,0.0,87,0.00,,,0.00,0,WeatherCatV1.20B785,2013-09-27 10:14:00,
2013-09-27 06:15:00,43.5,39.9,30.13,WNW,289,0.0,0.0,87,0.00,,,0.00,0,WeatherCatV1.20B785,2013-09-27 10:15:00,
2013-09-27 06:16:00,43.5,39.9,30.14,WNW,289,0.0,0.0,87,0.00,,,0.00,0,WeatherCatV1.20B785,2013-09-27 10:16:00,
2013-09-27 06:18:00,43.5,39.9,30.13,WNW,289,0.0,0.0,87,0.00,,,0.00,0,WeatherCatV1.20B785,2013-09-27 10:18:00,
2013-09-27 06:19:00,43.5,39.9,30.13,WNW,289,0.0,0.0,87,0.00,,,0.00,0,WeatherCatV1.20B785,2013-09-27 10:19:00,
2013-09-27 06:20:00,43.5,39.9,30.13,WNW,289,0.0,0.0,87,0.00,,,0.00,0,WeatherCatV1.20B785,2013-09-27 10:20:00,
2013-09-27 06:22:00,43.5,39.9,30.13,WNW,289,0.0,0.0,87,0.00,,,0.00,0,WeatherCatV1.20B785,2013-09-27 10:22:00,
2013-09-27 06:23:00,43.6,40.0,30.13,WNW,289,0.0,0.0,87,0.00,,,0.00,0,WeatherCatV1.20B785,2013-09-27 10:23:00,
2013-09-27 06:25:00,43.6,40.0,30.14,WNW,289,0.0,0.0,87,0.00,,,0.00,0,WeatherCatV1.20B785,2013-09-27 10:25:00,
2013-09-27 06:27:00,43.6,40.0,30.14,WNW,289,0.0,0.0,87,0.00,,,0.00,0,WeatherCatV1.20B785,2013-09-27 10:27:00,
2013-09-27 06:29:00,43.6,40.0,30.14,WNW,289,0.0,0.0,87,0.00,,,0.00,0,WeatherCatV1.20B785,2013-09-27 10:29:00,
2013-09-27 06:30:00,43.6,40.0,30.14,WNW,289,0.0,0.0,87,0.00,,,0.00,0,WeatherCatV1.20B785,2013-09-27 10:30:00,
2013-09-27 06:31:00,43.6,40.0,30.14,WNW,289,0.0,0.0,87,0.00,,,0.00,0,WeatherCatV1.20B785,2013-09-27 10:31:00,
2013-09-27 06:32:00,43.6,40.0,30.14,WNW,289,0.0,0.0,87,0.00,,,0.00,0,WeatherCatV1.20B785,2013-09-27 10:32:00,
2013-09-27 06:34:00,43.6,40.0,30.14,WNW,289,0.0,0.0,87,0.00,,,0.00,0,WeatherCatV1.20B785,2013-09-27 10:34:00,
2013-09-27 06:35:00,43.5,39.9,30.14,WNW,289,0.0,0.0,87,0.00,,,0.00,0,WeatherCatV1.20B785,2013-09-27 10:35:00,
2013-09-27 06:36:00,43.5,39.9,30.14,WNW,289,0.0,0.0,87,0.00,,,0.00,0,WeatherCatV1.20B785,2013-09-27 10:36:00,
2013-09-27 06:37:00,43.5,39.9,30.14,WNW,289,0.0,0.0,87,0.00,,,0.00,0,WeatherCatV1.20B785,2013-09-27 10:37:00,
2013-09-27 06:39:00,43.4,39.8,30.14,WNW,289,0.0,0.0,87,0.00,,,0.00,0,WeatherCatV1.20B785,2013-09-27 10:39:00,
2013-09-27 06:40:00,43.4,39.8,30.14,WNW,289,0.0,0.0,87,0.00,,,0.00,0,WeatherCatV1.20B785,2013-09-27 10:40:00,
2013-09-27 06:41:00,43.4,39.8,30.14,WNW,289,0.0,0.0,87,0.00,,,0.00,0,WeatherCatV1.20B785,2013-09-27 10:41:00,
2013-09-27 06:43:00,43.4,39.8,30.15,WNW,289,0.0,0.0,87,0.00,,,0.00,0,WeatherCatV1.20B785,2013-09-27 10:43:00,
2013-09-27 06:44:00,43.4,39.8,30.15,WNW,289,0.0,0.0,87,0.00,,,0.00,0,WeatherCatV1.20B785,2013-09-27 10:44:00,
2013-09-27 06:46:00,43.4,39.8,30.15,WNW,289,0.0,0.0,87,0.00,,,0.00,0,WeatherCatV1.20B785,2013-09-27 10:46:00,
2013-09-27 06:47:00,43.4,39.8,30.15,WNW,289,0.0,0.0,87,0.00,,,0.00,0,WeatherCatV1.20B785,2013-09-27 10:47:00,
2013-09-27 06:48:00,43.4,39.8,30.15,WNW,289,0.0,0.0,87,0.00,,,0.00,0,WeatherCatV1.20B785,2013-09-27 10:48:00,
2013-09-27 06:50:00,43.4,39.8,30.15,WNW,289,0.0,0.0,87,0.00,,,0.00,0,WeatherCatV1.20B785,2013-09-27 10:50:00,
2013-09-27 06:51:00,43.4,39.8,30.15,WNW,289,0.0,0.0,87,0.00,,,0.00,0,WeatherCatV1.20B785,2013-09-27 10:51:00,
2013-09-27 06:52:00,43.4,39.8,30.15,WNW,289,0.0,0.0,87,0.00,,,0.00,0,WeatherCatV1.20B785,2013-09-27 10:52:00,
2013-09-27 06:53:00,43.4,39.8,30.15,WNW,289,0.0,0.0,87,0.00,,,0.00,0,WeatherCatV1.20B785,2013-09-27 10:53:00,
2013-09-27 06:56:00,43.4,39.8,30.15,WNW,289,0.0,0.0,87,0.00,,,0.00,0,WeatherCatV1.20B785,2013-09-27 10:56:00,
2013-09-27 06:58:00,43.4,39.8,30.15,WNW,289,0.0,0.0,87,0.00,,,0.00,0,WeatherCatV1.20B785,2013-09-27 10:58:00,
2013-09-27 06:59:00,43.4,39.8,30.15,WNW,289,0.0,0.0,87,0.00,,,0.00,0,WeatherCatV1.20B785,2013-09-27 10:59:00,
2013-09-27 07:01:00,43.4,39.8,30.15,WNW,289,0.0,0.0,87,0.00,,,0.00,0,WeatherCatV1.20B785,2013-09-27 11:01:00,
2013-09-27 07:03:00,43.4,39.8,30.15,WNW,289,0.0,0.0,87,0.00,,,0.00,0,WeatherCatV1.20B785,2013-09-27 11:03:00,
2013-09-27 07:04:00,43.4,39.8,30.16,WNW,289,0.0,0.0,87,0.00,,,0.00,0,WeatherCatV1.20B785,2013-09-27 11:04:00,
2013-09-27 07:07:00,43.5,39.9,30.16,WNW,289,0.0,0.0,87,0.00,,,0.00,5,WeatherCatV1.20B785,2013-09-27 11:07:00,
2013-09-27 07:08:00,43.4,39.8,30.16,WNW,289,0.0,0.0,87,0.00,,,0.00,5,WeatherCatV1.20B785,2013-09-27 11:08:00,
2013-09-27 07:09:00,43.4,39.8,30.16,WNW,289,0.0,0.0,87,0.00,,,0.00,5,WeatherCatV1.20B785,2013-09-27 11:09:00,
2013-09-27 07:10:00,43.5,39.9,30.16,WNW,289,0.0,0.0,87,0.00,,,0.00,5,WeatherCatV1.20B785,2013-09-27 11:10:00,
2013-09-27 07:12:00,43.4,39.8,30.16,WNW,289,0.0,0.0,87,0.00,,,0.00,7,WeatherCatV1.20B785,2013-09-27 11:12:00,
2013-09-27 07:13:00,43.4,39.8,30.16,WNW,289,0.0,0.0,87,0.00,,,0.00,7,WeatherCatV1.20B785,2013-09-27 11:13:00,
2013-09-27 07:14:00,43.4,39.8,30.16,WNW,289,0.0,0.0,87,0.00,,,0.00,9,WeatherCatV1.20B785,2013-09-27 11:14:00,
2013-09-27 07:15:00,43.4,39.8,30.16,WNW,289,0.0,0.0,87,0.00,,,0.00,9,WeatherCatV1.20B785,2013-09-27 11:15:00,
2013-09-27 07:17:00,43.4,39.8,30.16,WNW,289,0.0,0.0,87,0.00,,,0.00,11,WeatherCatV1.20B785,2013-09-27 11:17:00,
2013-09-27 07:18:00,43.4,39.8,30.16,WNW,289,0.0,0.0,87,0.00,,,0.00,11,WeatherCatV1.20B785,2013-09-27 11:18:00,
2013-09-27 07:19:00,43.4,39.8,30.16,WNW,289,0.0,0.0,87,0.00,,,0.00,12,WeatherCatV1.20B785,2013-09-27 11:19:00,
2013-09-27 07:20:00,43.4,39.8,30.16,WNW,289,0.0,0.0,87,0.00,,,0.00,12,WeatherCatV1.20B785,2013-09-27 11:20:00,
2013-09-27 07:21:00,43.4,39.8,30.16,WNW,289,0.0,0.0,87,0.00,,,0.00,12,WeatherCatV1.20B785,2013-09-27 11:21:00,
2013-09-27 07:22:00,43.4,39.8,30.16,WNW,289,0.0,0.0,87,0.00,,,0.00,14,WeatherCatV1.20B785,2013-09-27 11:22:00,
2013-09-27 07:23:00,43.4,39.8,30.17,WNW,289,0.0,0.0,87,0.00,,,0.00,14,WeatherCatV1.20B785,2013-09-27 11:23:00,
2013-09-27 07:24:00,43.4,39.8,30.17,WNW,289,0.0,0.0,87,0.00,,,0.00,16,WeatherCatV1.20B785,2013-09-27 11:24:00,
2013-09-27 07:25:00,43.4,39.8,30.17,WNW,289,0.0,0.0,87,0.00,,,0.00,16,WeatherCatV1.20B785,2013-09-27 11:25:00,
2013-09-27 07:26:00,43.5,39.9,30.17,WNW,289,0.0,0.0,87,0.00,,,0.00,16,WeatherCatV1.20B785,2013-09-27 11:26:00,
2013-09-27 07:27:00,43.5,39.9,30.17,WNW,289,0.0,0.0,87,0.00,,,0.00,16,WeatherCatV1.20B785,2013-09-27 11:27:00,
2013-09-27 07:28:00,43.5,39.9,30.17,WNW,289,0.0,0.0,87,0.00,,,0.00,16,WeatherCatV1.20B785,2013-09-27 11:28:00,
2013-09-27 07:30:00,43.6,40.0,30.17,WNW,289,0.0,0.0,87,0.00,,,0.00,18,WeatherCatV1.20B785,2013-09-27 11:30:00,
2013-09-27 07:31:00,43.6,40.0,30.17,WNW,289,0.0,0.0,87,0.00,,,0.00,19,WeatherCatV1.20B785,2013-09-27 11:31:00,
2013-09-27 07:33:00,43.6,40.0,30.16,WNW,289,0.0,0.0,87,0.00,,,0.00,19,WeatherCatV1.20B785,2013-09-27 11:33:00,
2013-09-27 07:35:00,43.7,40.1,30.17,WNW,289,0.0,0.0,87,0.00,,,0.00,23,WeatherCatV1.20B785,2013-09-27 11:35:00,
2013-09-27 07:37:00,43.7,40.1,30.17,WNW,289,0.0,0.0,87,0.00,,,0.00,23,WeatherCatV1.20B785,2013-09-27 11:37:00,
2013-09-27 07:38:00,43.8,40.2,30.17,WNW,289,0.0,0.0,87,0.00,,,0.00,25,WeatherCatV1.20B785,2013-09-27 11:38:00,
2013-09-27 07:39:00,43.8,40.2,30.17,WNW,289,0.0,0.0,87,0.00,,,0.00,25,WeatherCatV1.20B785,2013-09-27 11:39:00,
2013-09-27 07:40:00,43.8,40.2,30.17,WNW,289,0.0,0.0,87,0.00,,,0.00,25,WeatherCatV1.20B785,2013-09-27 11:40:00,
2013-09-27 07:43:00,44.0,40.4,30.17,WNW,289,0.0,0.0,87,0.00,,,0.00,28,WeatherCatV1.20B785,2013-09-27 11:43:00,
2013-09-27 07:44:00,44.1,40.5,30.17,WNW,289,0.0,0.0,87,0.00,,,0.00,30,WeatherCatV1.20B785,2013-09-27 11:44:00,
2013-09-27 07:46:00,44.2,40.6,30.17,WNW,289,0.0,0.0,87,0.00,,,0.00,32,WeatherCatV1.20B785,2013-09-27 11:46:00,
2013-09-27 07:48:00,44.3,40.7,30.17,WNW,289,0.0,0.0,87,0.00,,,0.00,33,WeatherCatV1.20B785,2013-09-27 11:48:00,
2013-09-27 07:49:00,44.3,40.7,30.17,WNW,289,0.0,0.0,87,0.00,,,0.00,35,WeatherCatV1.20B785,2013-09-27 11:49:00,
2013-09-27 07:51:00,44.5,40.9,30.18,WNW,289,0.0,0.0,87,0.00,,,0.00,37,WeatherCatV1.20B785,2013-09-27 11:51:00,
2013-09-27 07:53:00,44.6,41.0,30.18,WNW,289,0.0,0.0,87,0.00,,,0.00,39,WeatherCatV1.20B785,2013-09-27 11:53:00,
2013-09-27 07:54:00,44.7,41.1,30.18,WNW,289,0.0,0.0,87,0.00,,,0.00,40,WeatherCatV1.20B785,2013-09-27 11:54:00,
2013-09-27 07:55:00,44.8,41.2,30.18,WNW,289,0.0,0.0,87,0.00,,,0.00,42,WeatherCatV1.20B785,2013-09-27 11:55:00,
2013-09-27 07:56:00,44.9,41.3,30.18,WNW,289,0.0,0.0,87,0.00,,,0.00,44,WeatherCatV1.20B785,2013-09-27 11:56:00,
2013-09-27 07:58:00,44.9,41.3,30.18,WNW,289,0.0,0.0,87,0.00,,,0.00,47,WeatherCatV1.20B785,2013-09-27 11:58:00,
2013-09-27 08:01:00,45.1,41.5,30.18,WNW,289,0.0,0.0,87,0.00,,,0.00,53,WeatherCatV1.20B785,2013-09-27 12:01:00,
2013-09-27 08:03:00,45.3,41.7,30.18,WNW,289,0.0,0.0,87,0.00,,,0.00,58,WeatherCatV1.20B785,2013-09-27 12:03:00,
2013-09-27 08:04:00,45.3,41.7,30.18,WNW,289,0.0,0.0,87,0.00,,,0.00,58,WeatherCatV1.20B785,2013-09-27 12:04:00,
2013-09-27 08:06:00,45.5,41.9,30.18,WNW,289,0.0,0.0,87,0.00,,,0.00,63,WeatherCatV1.20B785,2013-09-27 12:06:00,
2013-09-27 08:07:00,45.4,41.8,30.18,WNW,289,0.0,0.0,87,0.00,,,0.00,63,WeatherCatV1.20B785,2013-09-27 12:07:00,
2013-09-27 08:08:00,45.6,42.0,30.18,WNW,289,0.0,0.0,87,0.00,,,0.00,67,WeatherCatV1.20B785,2013-09-27 12:08:00,
2013-09-27 08:10:00,45.6,42.0,30.18,WNW,289,0.0,0.0,87,0.00,,,0.00,70,WeatherCatV1.20B785,2013-09-27 12:10:00,
2013-09-27 08:12:00,45.8,42.2,30.18,WNW,294,0.0,0.0,87,0.00,,,0.00,72,WeatherCatV1.20B785,2013-09-27 12:12:00,
2013-09-27 08:13:00,45.8,42.2,30.18,NE,39,1.0,1.0,87,0.00,,,0.00,70,WeatherCatV1.20B785,2013-09-27 12:13:00,
2013-09-27 08:14:00,45.9,42.2,30.18,NE,39,1.0,1.0,87,0.00,,,0.00,72,WeatherCatV1.20B785,2013-09-27 12:14:00,
2013-09-27 08:16:00,46.1,42.5,30.18,NE,39,0.0,0.0,87,0.00,,,0.00,148,WeatherCatV1.20B785,2013-09-27 12:16:00,
2013-09-27 08:17:00,46.2,42.5,30.18,NE,39,0.0,0.0,87,0.00,,,0.00,179,WeatherCatV1.20B785,2013-09-27 12:17:00,
2013-09-27 08:18:00,46.2,42.5,30.18,NE,39,0.0,0.0,87,0.00,,,0.00,77,WeatherCatV1.20B785,2013-09-27 12:18:00,
2013-09-27 08:19:00,46.3,42.7,30.18,NE,39,0.0,0.0,87,0.00,,,0.00,77,WeatherCatV1.20B785,2013-09-27 12:19:00,
2013-09-27 08:22:00,46.4,42.7,30.18,NE,39,0.0,0.0,87,0.00,,,0.00,79,WeatherCatV1.20B785,2013-09-27 12:22:00,
2013-09-27 08:23:00,46.5,43.1,30.18,NE,39,0.0,0.0,88,0.00,,,0.00,81,WeatherCatV1.20B785,2013-09-27 12:23:00,
2013-09-27 08:24:00,46.6,43.2,30.18,NE,39,0.0,0.0,88,0.00,,,0.00,81,WeatherCatV1.20B785,2013-09-27 12:24:00,
2013-09-27 08:27:00,46.8,43.4,30.18,NE,39,0.0,0.0,88,0.00,,,0.00,83,WeatherCatV1.20B785,2013-09-27 12:27:00,
2013-09-27 08:28:00,46.8,43.4,30.18,NE,39,0.0,0.0,88,0.00,,,0.00,84,WeatherCatV1.20B785,2013-09-27 12:28:00,
2013-09-27 08:29:00,46.9,43.5,30.19,NE,39,0.0,0.0,88,0.00,,,0.00,84,WeatherCatV1.20B785,2013-09-27 12:29:00,
2013-09-27 08:32:00,47.2,43.8,30.19,NE,39,0.0,0.0,88,0.00,,,0.00,86,WeatherCatV1.20B785,2013-09-27 12:32:00,
2013-09-27 08:33:00,47.2,43.8,30.19,NE,39,0.0,0.0,88,0.00,,,0.00,88,WeatherCatV1.20B785,2013-09-27 12:33:00,
2013-09-27 08:34:00,47.2,43.8,30.19,NE,39,0.0,0.0,88,0.00,,,0.00,88,WeatherCatV1.20B785,2013-09-27 12:34:00,
2013-09-27 08:38:00,47.5,44.1,30.19,NE,39,0.0,0.0,88,0.00,,,0.00,90,WeatherCatV1.20B785,2013-09-27 12:38:00,
2013-09-27 08:39:00,47.5,44.1,30.19,NE,39,0.0,0.0,88,0.00,,,0.00,91,WeatherCatV1.20B785,2013-09-27 12:39:00,
2013-09-27 08:40:00,47.6,44.2,30.19,NE,39,0.0,0.0,88,0.00,,,0.00,93,WeatherCatV1.20B785,2013-09-27 12:40:00,
2013-09-27 08:45:00,47.9,44.5,30.19,NE,39,0.0,0.0,88,0.00,,,0.00,93,WeatherCatV1.20B785,2013-09-27 12:45:00,
2013-09-27 08:50:00,48.3,44.9,30.19,NE,39,0.0,0.0,88,0.00,,,0.00,97,WeatherCatV1.20B785,2013-09-27 12:50:00,
2013-09-27 08:51:00,48.3,44.9,30.19,NE,39,0.0,0.0,88,0.00,,,0.00,98,WeatherCatV1.20B785,2013-09-27 12:51:00,
2013-09-27 08:55:00,48.6,45.2,30.19,NE,39,0.0,0.0,88,0.00,,,0.00,98,WeatherCatV1.20B785,2013-09-27 12:55:00,
2013-09-27 08:56:00,48.7,45.3,30.19,NE,39,0.0,0.0,88,0.00,,,0.00,98,WeatherCatV1.20B785,2013-09-27 12:56:00,
2013-09-27 09:00:00,49.0,45.6,30.19,NE,39,0.0,0.0,88,0.00,,,0.00,102,WeatherCatV1.20B785,2013-09-27 13:00:00,
2013-09-27 09:01:00,49.0,45.6,30.20,NE,39,0.0,0.0,88,0.00,,,0.00,102,WeatherCatV1.20B785,2013-09-27 13:01:00,
2013-09-27 09:02:00,49.1,45.7,30.20,NE,39,0.0,0.0,88,0.00,,,0.00,102,WeatherCatV1.20B785,2013-09-27 13:02:00,
2013-09-27 09:06:00,49.4,46.0,30.20,NE,39,0.0,0.0,88,0.00,,,0.00,105,WeatherCatV1.20B785,2013-09-27 13:06:00,
2013-09-27 09:07:00,49.5,46.1,30.20,NE,39,0.0,0.0,88,0.00,,,0.00,105,WeatherCatV1.20B785,2013-09-27 13:07:00,
2013-09-27 09:11:00,49.9,46.5,30.20,NE,39,0.0,0.0,88,0.00,,,0.00,114,WeatherCatV1.20B785,2013-09-27 13:11:00,
2013-09-27 09:12:00,49.9,46.5,30.20,NE,39,0.0,0.0,88,0.00,,,0.00,114,WeatherCatV1.20B785,2013-09-27 13:12:00,
2013-09-27 09:13:00,50.0,46.6,30.20,NE,39,0.0,0.0,88,0.00,,,0.00,116,WeatherCatV1.20B785,2013-09-27 13:13:00,
2013-09-27 09:16:00,50.3,46.9,30.20,NE,39,0.0,0.0,88,0.00,,,0.00,118,WeatherCatV1.20B785,2013-09-27 13:16:00,
2013-09-27 09:17:00,50.3,46.9,30.20,NE,39,0.0,0.0,88,0.00,,,0.00,118,WeatherCatV1.20B785,2013-09-27 13:17:00,
2013-09-27 09:18:00,50.4,47.0,30.20,NE,39,0.0,1.0,88,0.00,,,0.00,120,WeatherCatV1.20B785,2013-09-27 13:18:00,
2013-09-27 09:22:00,50.6,47.2,30.20,NW,317,0.0,1.0,88,0.00,,,0.00,123,WeatherCatV1.20B785,2013-09-27 13:22:00,
2013-09-27 09:23:00,50.7,47.3,30.20,NW,317,0.0,1.0,88,0.00,,,0.00,123,WeatherCatV1.20B785,2013-09-27 13:23:00,
2013-09-27 09:27:00,50.9,47.5,30.20,NW,317,0.0,0.0,88,0.00,,,0.00,135,WeatherCatV1.20B785,2013-09-27 13:27:00,
2013-09-27 09:28:00,51.0,47.6,30.20,NW,317,0.0,0.0,88,0.00,,,0.00,137,WeatherCatV1.20B785,2013-09-27 13:28:00,
2013-09-27 09:29:00,51.1,47.7,30.20,NW,316,0.0,1.0,88,0.00,,,0.00,139,WeatherCatV1.20B785,2013-09-27 13:29:00,
2013-09-27 09:32:00,51.4,47.7,30.20,NW,317,0.0,0.0,87,0.00,,,0.00,144,WeatherCatV1.20B785,2013-09-27 13:32:00,
2013-09-27 09:33:00,51.4,47.7,30.20,NW,316,0.0,0.0,87,0.00,,,0.00,148,WeatherCatV1.20B785,2013-09-27 13:33:00,
2013-09-27 09:34:00,51.5,48.1,30.20,NW,317,0.0,0.0,88,0.00,,,0.00,149,WeatherCatV1.20B785,2013-09-27 13:34:00,
2013-09-27 09:37:00,51.8,48.0,30.20,NW,317,0.0,1.0,87,0.00,,,0.00,151,WeatherCatV1.20B785,2013-09-27 13:37:00,
2013-09-27 09:38:00,51.8,48.0,30.20,NW,317,0.0,1.0,87,0.00,,,0.00,153,WeatherCatV1.20B785,2013-09-27 13:38:00,
2013-09-27 09:39:00,51.9,48.2,30.20,NW,317,0.0,1.0,87,0.00,,,0.00,155,WeatherCatV1.20B785,2013-09-27 13:39:00,
2013-09-27 09:40:00,52.0,48.2,30.20,NW,317,0.0,0.0,87,0.00,,,0.00,156,WeatherCatV1.20B785,2013-09-27 13:40:00,
2013-09-27 09:43:00,52.2,48.5,30.20,NW,316,0.0,0.0,87,0.00,,,0.00,165,WeatherCatV1.20B785,2013-09-27 13:43:00,
2013-09-27 09:44:00,52.3,48.5,30.20,NW,316,0.0,0.0,87,0.00,,,0.00,169,WeatherCatV1.20B785,2013-09-27 13:44:00,
2013-09-27 09:46:00,52.4,48.3,30.20,NW,316,0.0,1.0,86,0.00,,,0.00,169,WeatherCatV1.20B785,2013-09-27 13:46:00,
2013-09-27 09:48:00,52.6,48.5,30.21,NW,317,0.0,0.0,86,0.00,,,0.00,167,WeatherCatV1.20B785,2013-09-27 13:48:00,
2013-09-27 09:49:00,52.7,48.6,30.21,NW,316,0.0,1.0,86,0.00,,,0.00,169,WeatherCatV1.20B785,2013-09-27 13:49:00,
2013-09-27 09:50:00,52.8,48.7,30.21,NW,316,0.0,0.0,86,0.00,,,0.00,172,WeatherCatV1.20B785,2013-09-27 13:50:00,
2013-09-27 09:51:00,52.9,48.8,30.21,NW,316,0.0,0.0,86,0.00,,,0.00,172,WeatherCatV1.20B785,2013-09-27 13:51:00,
2013-09-27 09:53:00,53.1,49.0,30.21,NW,312,0.0,1.0,86,0.00,,,0.00,178,WeatherCatV1.20B785,2013-09-27 13:53:00,
2013-09-27 09:54:00,53.2,49.4,30.21,NW,312,0.0,1.0,87,0.00,,,0.00,185,WeatherCatV1.20B785,2013-09-27 13:54:00,
2013-09-27 09:56:00,53.3,49.5,30.21,NW,312,0.0,0.0,87,0.00,,,0.00,190,WeatherCatV1.20B785,2013-09-27 13:56:00,
2013-09-27 09:58:00,53.4,49.9,30.21,NW,312,0.0,0.0,88,0.00,,,0.00,192,WeatherCatV1.20B785,2013-09-27 13:58:00,
2013-09-27 09:59:00,53.5,50.0,30.21,NW,312,0.0,0.0,88,0.00,,,0.00,193,WeatherCatV1.20B785,2013-09-27 13:59:00,
2013-09-27 10:00:00,53.6,50.4,30.21,NW,312,0.0,1.0,89,0.00,,,0.00,199,WeatherCatV1.20B785,2013-09-27 14:00:00,
2013-09-27 10:01:00,53.6,50.4,30.21,NW,312,0.0,1.0,89,0.00,,,0.00,202,WeatherCatV1.20B785,2013-09-27 14:01:00,
2013-09-27 10:03:00,53.8,50.6,30.21,NW,312,0.0,0.0,89,0.00,,,0.00,209,WeatherCatV1.20B785,2013-09-27 14:03:00,
2013-09-27 10:04:00,53.9,50.7,30.21,NW,312,0.0,0.0,89,0.00,,,0.00,209,WeatherCatV1.20B785,2013-09-27 14:04:00,
2013-09-27 10:08:00,54.2,51.0,30.21,NW,312,0.0,0.0,89,0.00,,,0.00,220,WeatherCatV1.20B785,2013-09-27 14:08:00,
2013-09-27 10:09:00,54.3,51.1,30.21,NW,312,0.0,0.0,89,0.00,,,0.00,225,WeatherCatV1.20B785,2013-09-27 14:09:00,
2013-09-27 10:13:00,54.7,51.5,30.21,East,83,0.0,0.0,89,0.00,,,0.00,248,WeatherCatV1.20B785,2013-09-27 14:13:00,
2013-09-27 10:14:00,54.8,51.6,30.21,East,83,0.0,0.0,89,0.00,,,0.00,251,WeatherCatV1.20B785,2013-09-27 14:14:00,
2013-09-27 10:18:00,55.1,51.9,30.21,East,83,0.0,1.0,89,0.00,,,0.00,258,WeatherCatV1.20B785,2013-09-27 14:18:00,
2013-09-27 10:19:00,55.2,52.0,30.21,East,83,1.0,1.0,89,0.00,,,0.00,260,WeatherCatV1.20B785,2013-09-27 14:19:00,
2013-09-27 10:20:00,55.3,52.1,30.21,East,85,0.0,1.0,89,0.00,,,0.00,260,WeatherCatV1.20B785,2013-09-27 14:20:00,
2013-09-27 10:24:00,55.7,52.5,30.21,East,85,0.0,0.0,89,0.00,,,0.00,258,WeatherCatV1.20B785,2013-09-27 14:24:00,
2013-09-27 10:25:00,55.8,52.6,30.21,East,85,0.0,0.0,89,0.00,,,0.00,260,WeatherCatV1.20B785,2013-09-27 14:25:00,
2013-09-27 10:29:00,56.2,52.7,30.21,East,98,0.0,2.0,88,0.00,,,0.00,271,WeatherCatV1.20B785,2013-09-27 14:29:00,
2013-09-27 10:30:00,56.3,52.8,30.21,East,98,0.0,1.0,88,0.00,,,0.00,272,WeatherCatV1.20B785,2013-09-27 14:30:00,
2013-09-27 10:34:00,56.6,53.1,30.21,NE,42,0.0,1.0,88,0.00,,,0.00,278,WeatherCatV1.20B785,2013-09-27 14:34:00,
2013-09-27 10:35:00,56.7,53.5,30.21,NE,43,1.0,1.0,89,0.00,,,0.00,279,WeatherCatV1.20B785,2013-09-27 14:35:00,
2013-09-27 10:37:00,56.9,53.4,30.21,NE,43,0.0,1.0,88,0.00,,,0.00,281,WeatherCatV1.20B785,2013-09-27 14:37:00,
2013-09-27 10:40:00,57.2,53.7,30.21,NE,43,0.0,1.0,88,0.00,,,0.00,281,WeatherCatV1.20B785,2013-09-27 14:40:00,
2013-09-27 10:41:00,57.3,53.8,30.21,NE,43,0.0,1.0,88,0.00,,,0.00,285,WeatherCatV1.20B785,2013-09-27 14:41:00,
2013-09-27 10:42:00,57.5,53.7,30.21,NE,43,0.0,1.0,87,0.00,,,0.00,287,WeatherCatV1.20B785,2013-09-27 14:42:00,
2013-09-27 10:45:00,57.8,53.6,30.21,ENE,63,0.0,1.0,86,0.00,,,0.00,295,WeatherCatV1.20B785,2013-09-27 14:45:00,
2013-09-27 10:46:00,57.9,53.7,30.21,ENE,63,0.0,0.0,86,0.00,,,0.00,302,WeatherCatV1.20B785,2013-09-27 14:46:00,
2013-09-27 10:47:00,58.1,53.9,30.21,ENE,63,0.0,0.0,86,0.00,,,0.00,311,WeatherCatV1.20B785,2013-09-27 14:47:00,
2013-09-27 10:50:00,58.5,54.0,30.21,ENE,63,0.0,1.0,85,0.00,,,0.00,320,WeatherCatV1.20B785,2013-09-27 14:50:00,
2013-09-27 10:51:00,58.6,54.1,30.21,ENE,62,0.0,1.0,85,0.00,,,0.00,320,WeatherCatV1.20B785,2013-09-27 14:51:00,
2013-09-27 10:53:00,58.9,54.1,30.21,NE,54,1.0,2.0,84,0.00,,,0.00,334,WeatherCatV1.20B785,2013-09-27 14:53:00,
2013-09-27 10:55:00,59.2,54.0,30.21,NE,54,0.0,1.0,83,0.00,,,0.00,348,WeatherCatV1.20B785,2013-09-27 14:55:00,
2013-09-27 10:56:00,59.3,54.1,30.21,NE,54,0.0,0.0,83,0.00,,,0.00,355,WeatherCatV1.20B785,2013-09-27 14:56:00,
2013-09-27 10:59:00,59.7,54.8,30.21,NE,54,0.0,1.0,84,0.00,,,0.00,385,WeatherCatV1.20B785,2013-09-27 14:59:00,
2013-09-27 11:00:00,60.0,55.2,30.21,ESE,110,1.0,2.0,84,0.00,,,0.00,383,WeatherCatV1.20B785,2013-09-27 15:00:00,
2013-09-27 11:01:00,60.0,55.2,30.21,ESE,107,2.0,2.0,84,0.00,,,0.00,383,WeatherCatV1.20B785,2013-09-27 15:01:00,
2013-09-27 11:04:00,60.6,54.4,30.21,ENE,65,2.0,3.0,80,0.00,,,0.00,397,WeatherCatV1.20B785,2013-09-27 15:04:00,
2013-09-27 11:06:00,60.8,54.2,30.21,NE,34,2.0,3.0,79,0.00,,,0.00,385,WeatherCatV1.20B785,2013-09-27 15:06:00,
2013-09-27 11:09:00,61.2,55.0,30.21,NE,51,2.0,3.0,80,0.00,,,0.00,352,WeatherCatV1.20B785,2013-09-27 15:09:00,
2013-09-27 11:11:00,61.4,55.2,30.21,NE,51,0.0,3.0,80,0.00,,,0.00,355,WeatherCatV1.20B785,2013-09-27 15:11:00,
2013-09-27 11:12:00,61.6,55.4,30.21,East,85,2.0,3.0,80,0.00,,,0.00,352,WeatherCatV1.20B785,2013-09-27 15:12:00,
2013-09-27 11:17:00,62.2,55.6,30.21,NE,41,3.0,4.0,79,0.00,,,0.00,364,WeatherCatV1.20B785,2013-09-27 15:17:00,
2013-09-27 11:18:00,62.2,56.0,30.21,East,79,1.0,3.0,80,0.00,,,0.00,369,WeatherCatV1.20B785,2013-09-27 15:18:00,
2013-09-27 11:22:00,62.5,55.9,30.21,ESE,108,2.0,3.0,79,0.00,,,0.00,352,WeatherCatV1.20B785,2013-09-27 15:22:00,
2013-09-27 11:23:00,62.6,56.3,30.21,East,99,5.0,5.0,80,0.00,,,0.00,355,WeatherCatV1.20B785,2013-09-27 15:23:00,
2013-09-27 11:27:00,63.0,57.1,30.21,NNW,333,1.0,1.0,81,0.00,,,0.00,411,WeatherCatV1.20B785,2013-09-27 15:27:00,
2013-09-27 11:28:00,63.1,56.8,30.21,NE,34,0.0,1.0,80,0.00,,,0.00,403,WeatherCatV1.20B785,2013-09-27 15:28:00,
2013-09-27 11:29:00,63.2,56.9,30.21,NE,34,0.0,1.0,80,0.00,,,0.00,396,WeatherCatV1.20B785,2013-09-27 15:29:00,
2013-09-27 11:32:00,63.6,56.6,30.21,NNE,25,2.0,5.0,78,0.00,,,0.00,390,WeatherCatV1.20B785,2013-09-27 15:32:00,
2013-09-27 11:33:00,63.7,56.3,30.21,ESE,104,2.0,5.0,77,0.00,,,0.00,385,WeatherCatV1.20B785,2013-09-27 15:33:00,
2013-09-27 11:34:00,63.7,56.3,30.21,ESE,104,1.0,5.0,77,0.00,,,0.00,381,WeatherCatV1.20B785,2013-09-27 15:34:00,
2013-09-27 11:37:00,63.8,56.8,30.21,ENE,76,3.0,5.0,78,0.00,,,0.00,399,WeatherCatV1.20B785,2013-09-27 15:37:00,
2013-09-27 11:38:00,63.9,56.5,30.21,ENE,63,2.0,3.0,77,0.00,,,0.00,415,WeatherCatV1.20B785,2013-09-27 15:38:00,
2013-09-27 11:39:00,63.9,56.5,30.21,ENE,61,5.0,5.0,77,0.00,,,0.00,482,WeatherCatV1.20B785,2013-09-27 15:39:00,
2013-09-27 11:40:00,63.9,56.9,30.21,NE,56,4.0,6.0,78,0.00,,,0.00,482,WeatherCatV1.20B785,2013-09-27 15:40:00,
2013-09-27 11:43:00,64.0,57.3,30.21,ENE,57,1.0,6.0,79,0.00,,,0.00,411,WeatherCatV1.20B785,2013-09-27 15:43:00,
2013-09-27 11:44:00,64.1,57.5,30.21,ENE,63,4.0,5.0,79,0.00,,,0.00,415,WeatherCatV1.20B785,2013-09-27 15:44:00,
2013-09-27 11:45:00,64.1,57.5,30.21,NE,47,2.0,5.0,79,0.00,,,0.00,415,WeatherCatV1.20B785,2013-09-27 15:45:00,
2013-09-27 11:46:00,64.3,57.6,30.20,East,98,1.0,5.0,79,0.00,,,0.00,415,WeatherCatV1.20B785,2013-09-27 15:46:00,
2013-09-27 11:49:00,64.4,57.4,30.20,East,92,1.0,5.0,78,0.00,,,0.00,432,WeatherCatV1.20B785,2013-09-27 15:49:00,
2013-09-27 11:50:00,64.6,58.3,30.20,NNW,348,0.0,2.0,80,0.00,,,0.00,418,WeatherCatV1.20B785,2013-09-27 15:50:00,
2013-09-27 11:51:00,64.7,58.0,30.20,NE,41,0.0,3.0,79,0.00,,,0.00,406,WeatherCatV1.20B785,2013-09-27 15:51:00,
2013-09-27 11:54:00,64.9,57.9,30.20,East,88,3.0,5.0,78,0.00,,,0.00,415,WeatherCatV1.20B785,2013-09-27 15:54:00,
2013-09-27 11:55:00,65.0,57.6,30.20,ESE,105,3.0,5.0,77,0.00,,,0.00,476,WeatherCatV1.20B785,2013-09-27 15:55:00,
2013-09-27 11:56:00,65.1,57.7,30.20,ESE,108,2.0,4.0,77,0.00,,,0.00,459,WeatherCatV1.20B785,2013-09-27 15:56:00,
2013-09-27 11:57:00,65.1,57.7,30.20,East,83,2.0,3.0,77,0.00,,,0.00,469,WeatherCatV1.20B785,2013-09-27 15:57:00,
2013-09-27 12:00:00,65.3,57.9,30.20,NW,323,1.0,4.0,77,0.00,,,0.00,410,WeatherCatV1.20B785,2013-09-27 16:00:00,
2013-09-27 12:01:00,65.5,58.5,30.20,NE,38,3.0,4.0,78,0.00,,,0.00,380,WeatherCatV1.20B785,2013-09-27 16:01:00,
2013-09-27 12:02:00,65.6,58.2,30.20,ENE,67,1.0,3.0,77,0.00,,,0.00,380,WeatherCatV1.20B785,2013-09-27 16:02:00,
2013-09-27 12:05:00,65.9,58.1,30.20,NE,44,2.0,3.0,76,0.00,,,0.00,432,WeatherCatV1.20B785,2013-09-27 16:05:00,
2013-09-27 12:06:00,65.9,58.1,30.20,NE,47,0.0,3.0,76,0.00,,,0.00,432,WeatherCatV1.20B785,2013-09-27 16:06:00,
2013-09-27 12:07:00,66.1,58.3,30.20,NW,325,1.0,2.0,76,0.00,,,0.00,475,WeatherCatV1.20B785,2013-09-27 16:07:00,
2013-09-27 12:10:00,66.3,58.5,30.20,NE,53,3.0,4.0,76,0.00,,,0.00,473,WeatherCatV1.20B785,2013-09-27 16:10:00,
2013-09-27 12:11:00,66.3,58.5,30.20,NNE,23,4.0,4.0,76,0.00,,,0.00,473,WeatherCatV1.20B785,2013-09-27 16:11:00,
2013-09-27 12:12:00,66.5,58.3,30.20,NW,321,2.0,4.0,75,0.00,,,0.00,473,WeatherCatV1.20B785,2013-09-27 16:12:00,
2013-09-27 12:13:00,66.7,58.9,30.20,WNW,298,1.0,2.0,76,0.00,,,0.00,473,WeatherCatV1.20B785,2013-09-27 16:13:00,
2013-09-27 12:15:00,66.9,58.7,30.20,WNW,299,1.0,2.0,75,0.00,,,0.00,397,WeatherCatV1.20B785,2013-09-27 16:15:00,
2013-09-27 12:16:00,67.0,58.8,30.20,NE,54,3.0,3.0,75,0.00,,,0.00,411,WeatherCatV1.20B785,2013-09-27 16:16:00,
2013-09-27 12:17:00,67.1,57.8,30.20,East,96,1.0,5.0,72,0.00,,,0.00,394,WeatherCatV1.20B785,2013-09-27 16:17:00,
2013-09-27 12:18:00,67.0,57.7,30.20,NNE,26,0.0,5.0,72,0.00,,,0.00,376,WeatherCatV1.20B785,2013-09-27 16:18:00,
2013-09-27 12:21:00,66.9,57.2,30.20,ENE,78,1.0,4.0,71,0.00,,,0.00,373,WeatherCatV1.20B785,2013-09-27 16:21:00,
2013-09-27 12:22:00,66.8,56.3,30.20,East,88,3.0,4.0,69,0.00,,,0.00,371,WeatherCatV1.20B785,2013-09-27 16:22:00,
2013-09-27 12:24:00,66.8,56.7,30.20,ESE,106,2.0,4.0,70,0.00,,,0.00,374,WeatherCatV1.20B785,2013-09-27 16:24:00,
2013-09-27 12:26:00,66.9,56.8,30.20,East,83,1.0,3.0,70,0.00,,,0.00,388,WeatherCatV1.20B785,2013-09-27 16:26:00,
2013-09-27 12:27:00,66.9,57.2,30.20,ESE,113,2.0,3.0,71,0.00,,,0.00,388,WeatherCatV1.20B785,2013-09-27 16:27:00,
2013-09-27 12:30:00,66.9,57.6,30.20,NE,42,2.0,4.0,72,0.00,,,0.00,406,WeatherCatV1.20B785,2013-09-27 16:30:00,
2013-09-27 12:31:00,66.9,57.2,30.20,East,90,2.0,3.0,71,0.00,,,0.00,403,WeatherCatV1.20B785,2013-09-27 16:31:00,
2013-09-27 12:32:00,66.9,57.2,30.20,ESE,106,3.0,3.0,71,0.00,,,0.00,403,WeatherCatV1.20B785,2013-09-27 16:32:00,
2013-09-27 12:35:00,66.9,57.6,30.20,East,99,1.0,2.0,72,0.00,,,0.00,439,WeatherCatV1.20B785,2013-09-27 16:35:00,
2013-09-27 12:36:00,66.9,57.2,30.20,East,99,0.0,2.0,71,0.00,,,0.00,439,WeatherCatV1.20B785,2013-09-27 16:36:00,
2013-09-27 12:37:00,66.9,57.6,30.20,East,98,1.0,2.0,72,0.00,,,0.00,439,WeatherCatV1.20B785,2013-09-27 16:37:00,
2013-09-27 12:41:00,67.2,57.1,30.20,NNE,26,0.0,4.0,70,0.00,,,0.00,476,WeatherCatV1.20B785,2013-09-27 16:41:00,
2013-09-27 12:42:00,67.2,57.1,30.20,East,90,3.0,5.0,70,0.00,,,0.00,438,WeatherCatV1.20B785,2013-09-27 16:42:00,
2013-09-27 12:43:00,67.2,57.1,30.20,East,96,0.0,5.0,70,0.00,,,0.00,434,WeatherCatV1.20B785,2013-09-27 16:43:00,
2013-09-27 12:46:00,67.1,57.0,30.20,ESE,106,1.0,2.0,70,0.00,,,0.00,452,WeatherCatV1.20B785,2013-09-27 16:46:00,
2013-09-27 12:47:00,67.0,56.9,30.20,ESE,102,2.0,3.0,70,0.00,,,0.00,452,WeatherCatV1.20B785,2013-09-27 16:47:00,
2013-09-27 12:48:00,67.0,56.9,30.20,East,83,1.0,3.0,70,0.00,,,0.00,497,WeatherCatV1.20B785,2013-09-27 16:48:00,
2013-09-27 12:51:00,67.2,57.1,30.19,NE,50,3.0,5.0,70,0.00,,,0.00,445,WeatherCatV1.20B785,2013-09-27 16:51:00,
2013-09-27 12:52:00,67.2,56.7,30.19,East,86,2.0,5.0,69,0.00,,,0.00,445,WeatherCatV1.20B785,2013-09-27 16:52:00,
2013-09-27 12:53:00,67.3,57.2,30.19,East,97,0.0,5.0,70,0.00,,,0.00,482,WeatherCatV1.20B785,2013-09-27 16:53:00,
2013-09-27 12:57:00,67.8,56.8,30.19,NE,54,0.0,1.0,68,0.00,,,0.00,775,WeatherCatV1.20B785,2013-09-27 16:57:00,
2013-09-27 12:58:00,67.9,56.9,30.19,SSW,204,1.0,2.0,68,0.00,,,0.00,816,WeatherCatV1.20B785,2013-09-27 16:58:00,
2013-09-27 13:02:00,69.2,58.6,30.19,WNW,296,2.0,2.0,69,0.00,,,0.00,796,WeatherCatV1.20B785,2013-09-27 17:02:00,
2013-09-27 13:03:00,69.2,58.6,30.19,NNW,335,2.0,2.0,69,0.00,,,0.00,796,WeatherCatV1.20B785,2013-09-27 17:03:00,
2013-09-27 13:08:00,69.8,57.5,30.19,ENE,57,0.0,1.0,65,0.00,,,0.00,724,WeatherCatV1.20B785,2013-09-27 17:08:00,
2013-09-27 13:09:00,69.9,57.6,30.19,NNW,335,1.0,1.0,65,0.00,,,0.00,724,WeatherCatV1.20B785,2013-09-27 17:09:00,
2013-09-27 13:13:00,70.2,57.9,30.19,East,83,2.0,3.0,65,0.00,,,0.00,773,WeatherCatV1.20B785,2013-09-27 17:13:00,
2013-09-27 13:14:00,70.3,58.4,30.19,East,87,3.0,5.0,66,0.00,,,0.00,766,WeatherCatV1.20B785,2013-09-27 17:14:00,
2013-09-27 13:18:00,70.2,58.3,30.19,SSE,160,0.0,1.0,66,0.00,,,0.00,779,WeatherCatV1.20B785,2013-09-27 17:18:00,
2013-09-27 13:19:00,70.2,58.3,30.19,East,99,0.0,1.0,66,0.00,,,0.00,779,WeatherCatV1.20B785,2013-09-27 17:19:00,
2013-09-27 13:24:00,70.7,58.3,30.19,NW,308,1.0,2.0,65,0.00,,,0.00,772,WeatherCatV1.20B785,2013-09-27 17:24:00,
2013-09-27 13:26:00,70.8,58.9,30.18,WNW,286,0.0,2.0,66,0.00,,,0.00,772,WeatherCatV1.20B785,2013-09-27 17:26:00,
2013-09-27 13:29:00,71.2,59.2,30.18,ESE,104,0.0,3.0,66,0.00,,,0.00,737,WeatherCatV1.20B785,2013-09-27 17:29:00,
2013-09-27 13:30:00,71.4,59.0,30.18,ENE,58,2.0,3.0,65,0.00,,,0.00,724,WeatherCatV1.20B785,2013-09-27 17:30:00,
2013-09-27 13:31:00,71.6,58.8,30.19,ENE,76,4.0,4.0,64,0.00,,,0.00,647,WeatherCatV1.20B785,2013-09-27 17:31:00,
2013-09-27 13:34:00,71.7,57.5,30.18,ESE,103,2.0,5.0,61,0.00,,,0.00,765,WeatherCatV1.20B785,2013-09-27 17:34:00,
2013-09-27 13:36:00,71.6,57.0,30.18,NNW,341,1.0,3.0,60,0.00,,,0.00,765,WeatherCatV1.20B785,2013-09-27 17:36:00,
2013-09-27 13:37:00,71.6,57.0,30.18,WNW,297,1.0,3.0,60,0.00,,,0.00,763,WeatherCatV1.20B785,2013-09-27 17:37:00,
2013-09-27 13:39:00,71.7,57.5,30.18,NNW,343,1.0,4.0,61,0.00,,,0.00,773,WeatherCatV1.20B785,2013-09-27 17:39:00,
2013-09-27 13:40:00,71.8,57.6,30.18,NNW,343,0.0,4.0,61,0.00,,,0.00,761,WeatherCatV1.20B785,2013-09-27 17:40:00,
2013-09-27 13:41:00,71.9,57.7,30.18,NNE,26,2.0,2.0,61,0.00,,,0.00,754,WeatherCatV1.20B785,2013-09-27 17:41:00,
2013-09-27 13:43:00,72.1,58.8,30.18,NNW,329,1.0,2.0,63,0.00,,,0.00,770,WeatherCatV1.20B785,2013-09-27 17:43:00,
2013-09-27 13:46:00,72.7,58.9,30.18,NNE,33,0.0,3.0,62,0.00,,,0.00,775,WeatherCatV1.20B785,2013-09-27 17:46:00,
2013-09-27 13:48:00,72.9,58.2,30.18,SE,131,1.0,1.0,60,0.00,,,0.00,773,WeatherCatV1.20B785,2013-09-27 17:48:00,
2013-09-27 13:51:00,72.7,58.0,30.18,East,88,1.0,1.0,60,0.00,,,0.00,153,WeatherCatV1.20B785,2013-09-27 17:51:00,
2013-09-27 13:52:00,72.7,58.0,30.18,WNW,293,3.0,3.0,60,0.00,,,0.00,155,WeatherCatV1.20B785,2013-09-27 17:52:00,
2013-09-27 13:53:00,72.8,59.0,30.18,NW,312,2.0,4.0,62,0.00,,,0.00,146,WeatherCatV1.20B785,2013-09-27 17:53:00,
2013-09-27 13:56:00,73.2,58.5,30.17,NNW,327,0.0,3.0,60,0.00,,,0.00,176,WeatherCatV1.20B785,2013-09-27 17:56:00,
2013-09-27 13:57:00,73.2,58.5,30.17,NW,326,1.0,3.0,60,0.00,,,0.00,176,WeatherCatV1.20B785,2013-09-27 17:57:00,
2013-09-27 13:58:00,73.4,58.7,30.17,WNW,296,0.0,2.0,60,0.00,,,0.00,682,WeatherCatV1.20B785,2013-09-27 17:58:00,
2013-09-27 14:01:00,73.8,58.6,30.17,ENE,65,5.0,7.0,59,0.00,,,0.00,682,WeatherCatV1.20B785,2013-09-27 18:01:00,
2013-09-27 14:02:00,73.8,58.6,30.17,East,99,3.0,7.0,59,0.00,,,0.00,682,WeatherCatV1.20B785,2013-09-27 18:02:00,
2013-09-27 14:03:00,73.9,58.2,30.17,ENE,75,3.0,7.0,58,0.00,,,0.00,682,WeatherCatV1.20B785,2013-09-27 18:03:00,
2013-09-27 14:04:00,73.8,58.1,30.17,ESE,112,1.0,5.0,58,0.00,,,0.00,682,WeatherCatV1.20B785,2013-09-27 18:04:00,
2013-09-27 14:06:00,73.6,58.8,30.17,WNW,291,4.0,4.0,60,0.00,,,0.00,227,WeatherCatV1.20B785,2013-09-27 18:06:00,
2013-09-27 14:07:00,73.6,58.8,30.17,East,90,4.0,4.0,60,0.00,,,0.00,251,WeatherCatV1.20B785,2013-09-27 18:07:00,
2013-09-27 14:08:00,73.6,59.3,30.17,ESE,113,2.0,4.0,61,0.00,,,0.00,251,WeatherCatV1.20B785,2013-09-27 18:08:00,
2013-09-27 14:09:00,73.6,58.4,30.17,East,98,0.0,3.0,59,0.00,,,0.00,251,WeatherCatV1.20B785,2013-09-27 18:09:00,
2013-09-27 14:12:00,73.5,58.3,30.17,East,100,3.0,5.0,59,0.00,,,0.00,596,WeatherCatV1.20B785,2013-09-27 18:12:00,
2013-09-27 14:13:00,73.4,57.7,30.17,SE,124,1.0,5.0,58,0.00,,,0.00,346,WeatherCatV1.20B785,2013-09-27 18:13:00,
2013-09-27 14:14:00,73.2,58.0,30.17,East,96,5.0,5.0,59,0.00,,,0.00,346,WeatherCatV1.20B785,2013-09-27 18:14:00,
2013-09-27 14:17:00,72.7,57.5,30.17,ENE,73,1.0,5.0,59,0.00,,,0.00,220,WeatherCatV1.20B785,2013-09-27 18:17:00,
2013-09-27 14:18:00,72.5,57.8,30.17,ENE,75,4.0,5.0,60,0.00,,,0.00,220,WeatherCatV1.20B785,2013-09-27 18:18:00,
2013-09-27 14:19:00,72.3,57.6,30.17,ESE,103,5.0,5.0,60,0.00,,,0.00,221,WeatherCatV1.20B785,2013-09-27 18:19:00,
2013-09-27 14:23:00,71.7,57.5,30.17,ESE,113,1.0,3.0,61,0.00,,,0.00,232,WeatherCatV1.20B785,2013-09-27 18:23:00,
2013-09-27 14:24:00,71.4,57.2,30.17,ESE,120,0.0,5.0,61,0.00,,,0.00,229,WeatherCatV1.20B785,2013-09-27 18:24:00,
2013-09-27 14:25:00,71.4,57.2,30.17,ESE,102,0.0,5.0,61,0.00,,,0.00,229,WeatherCatV1.20B785,2013-09-27 18:25:00,
2013-09-27 14:28:00,71.1,57.8,30.17,East,98,0.0,5.0,63,0.00,,,0.00,220,WeatherCatV1.20B785,2013-09-27 18:28:00,
2013-09-27 14:29:00,71.0,57.8,30.17,East,83,2.0,5.0,63,0.00,,,0.00,218,WeatherCatV1.20B785,2013-09-27 18:29:00,
2013-09-27 14:30:00,71.0,57.8,30.17,East,98,2.0,5.0,63,0.00,,,0.00,232,WeatherCatV1.20B785,2013-09-27 18:30:00,
2013-09-27 14:31:00,70.9,57.7,30.17,ESE,102,1.0,2.0,63,0.00,,,0.00,243,WeatherCatV1.20B785,2013-09-27 18:31:00,
2013-09-27 14:34:00,70.6,57.8,30.17,SE,129,2.0,3.0,64,0.00,,,0.00,288,WeatherCatV1.20B785,2013-09-27 18:34:00,
2013-09-27 14:35:00,70.6,57.4,30.16,ENE,72,2.0,4.0,63,0.00,,,0.00,294,WeatherCatV1.20B785,2013-09-27 18:35:00,
2013-09-27 14:37:00,70.6,57.4,30.16,ESE,116,4.0,5.0,63,0.00,,,0.00,348,WeatherCatV1.20B785,2013-09-27 18:37:00,
2013-09-27 14:39:00,70.6,57.4,30.16,East,91,2.0,5.0,63,0.00,,,0.00,390,WeatherCatV1.20B785,2013-09-27 18:39:00,
2013-09-27 14:40:00,70.6,57.4,30.16,ESE,115,1.0,6.0,63,0.00,,,0.00,420,WeatherCatV1.20B785,2013-09-27 18:40:00,
2013-09-27 14:41:00,70.6,57.4,30.16,East,94,5.0,6.0,63,0.00,,,0.00,396,WeatherCatV1.20B785,2013-09-27 18:41:00,
2013-09-27 14:43:00,70.7,57.0,30.16,SSE,148,0.0,5.0,62,0.00,,,0.00,462,WeatherCatV1.20B785,2013-09-27 18:43:00,
2013-09-27 14:44:00,70.7,57.5,30.16,SE,127,0.0,3.0,63,0.00,,,0.00,462,WeatherCatV1.20B785,2013-09-27 18:44:00,
2013-09-27 14:46:00,70.7,57.5,30.16,SSE,162,1.0,2.0,63,0.00,,,0.00,506,WeatherCatV1.20B785,2013-09-27 18:46:00,
2013-09-27 14:49:00,70.7,57.9,30.16,East,81,1.0,3.0,64,0.00,,,0.00,392,WeatherCatV1.20B785,2013-09-27 18:49:00,
2013-09-27 14:51:00,70.8,57.6,30.16,ENE,70,0.0,2.0,63,0.00,,,0.00,306,WeatherCatV1.20B785,2013-09-27 18:51:00,
2013-09-27 14:52:00,70.9,57.7,30.16,ENE,70,0.0,2.0,63,0.00,,,0.00,306,WeatherCatV1.20B785,2013-09-27 18:52:00,
2013-09-27 14:54:00,71.0,58.2,30.16,ESE,106,0.0,1.0,64,0.00,,,0.00,271,WeatherCatV1.20B785,2013-09-27 18:54:00,
2013-09-27 14:55:00,71.1,58.3,30.16,NNE,33,1.0,2.0,64,0.00,,,0.00,271,WeatherCatV1.20B785,2013-09-27 18:55:00,
2013-09-27 14:56:00,71.4,58.6,30.16,NE,54,3.0,3.0,64,0.00,,,0.00,287,WeatherCatV1.20B785,2013-09-27 18:56:00,
2013-09-27 14:57:00,71.4,58.6,30.16,ENE,73,3.0,3.0,64,0.00,,,0.00,287,WeatherCatV1.20B785,2013-09-27 18:57:00,
2013-09-27 14:59:00,71.6,58.3,30.16,ESE,106,2.0,8.0,63,0.00,,,0.00,190,WeatherCatV1.20B785,2013-09-27 18:59:00,
2013-09-27 15:00:00,71.6,57.9,30.16,East,86,3.0,4.0,62,0.00,,,0.00,183,WeatherCatV1.20B785,2013-09-27 19:00:00,
2013-09-27 15:02:00,71.4,57.7,30.16,ENE,58,3.0,5.0,62,0.00,,,0.00,179,WeatherCatV1.20B785,2013-09-27 19:02:00,
2013-09-27 15:03:00,71.3,57.6,30.16,ENE,73,2.0,2.0,62,0.00,,,0.00,178,WeatherCatV1.20B785,2013-09-27 19:03:00,
2013-09-27 15:04:00,71.3,57.6,30.16,ESE,102,5.0,5.0,62,0.00,,,0.00,174,WeatherCatV1.20B785,2013-09-27 19:04:00,
2013-09-27 15:05:00,71.2,57.0,30.16,NE,35,2.0,5.0,61,0.00,,,0.00,174,WeatherCatV1.20B785,2013-09-27 19:05:00,
2013-09-27 15:07:00,71.1,57.4,30.16,NE,50,3.0,3.0,62,0.00,,,0.00,178,WeatherCatV1.20B785,2013-09-27 19:07:00,
2013-09-27 15:09:00,71.0,57.3,30.16,NE,48,2.0,5.0,62,0.00,,,0.00,181,WeatherCatV1.20B785,2013-09-27 19:09:00,
2013-09-27 15:10:00,70.9,57.2,30.16,NE,48,1.0,2.0,62,0.00,,,0.00,181,WeatherCatV1.20B785,2013-09-27 19:10:00,
2013-09-27 15:11:00,70.8,57.1,30.16,ENE,63,1.0,2.0,62,0.00,,,0.00,181,WeatherCatV1.20B785,2013-09-27 19:11:00,
2013-09-27 15:12:00,70.8,57.1,30.16,East,94,2.0,2.0,62,0.00,,,0.00,181,WeatherCatV1.20B785,2013-09-27 19:12:00,
2013-09-27 15:14:00,70.7,56.6,30.16,NE,45,0.0,2.0,61,0.00,,,0.00,190,WeatherCatV1.20B785,2013-09-27 19:14:00,
2013-09-27 15:16:00,70.6,56.9,30.16,ESE,106,1.0,2.0,62,0.00,,,0.00,232,WeatherCatV1.20B785,2013-09-27 19:16:00,
2013-09-27 15:18:00,70.6,56.9,30.16,ESE,121,0.0,1.0,62,0.00,,,0.00,323,WeatherCatV1.20B785,2013-09-27 19:18:00,
2013-09-27 15:19:00,70.6,56.9,30.16,SE,133,0.0,1.0,62,0.00,,,0.00,499,WeatherCatV1.20B785,2013-09-27 19:19:00,
2013-09-27 15:20:00,70.6,57.4,30.16,SE,133,0.0,0.0,63,0.00,,,0.00,244,WeatherCatV1.20B785,2013-09-27 19:20:00,
2013-09-27 15:21:00,70.7,57.5,30.16,ENE,78,2.0,2.0,63,0.00,,,0.00,248,WeatherCatV1.20B785,2013-09-27 19:21:00,
2013-09-27 15:22:00,70.7,57.5,30.16,SSE,167,0.0,2.0,63,0.00,,,0.00,302,WeatherCatV1.20B785,2013-09-27 19:22:00,
2013-09-27 15:23:00,70.7,57.0,30.16,SE,145,0.0,1.0,62,0.00,,,0.00,262,WeatherCatV1.20B785,2013-09-27 19:23:00,
2013-09-27 15:24:00,70.7,57.0,30.16,SSE,160,0.0,1.0,62,0.00,,,0.00,279,WeatherCatV1.20B785,2013-09-27 19:24:00,
2013-09-27 15:26:00,70.7,57.0,30.16,SE,134,0.0,1.0,62,0.00,,,0.00,480,WeatherCatV1.20B785,2013-09-27 19:26:00,
2013-09-27 15:27:00,70.7,57.0,30.16,SE,134,0.0,0.0,62,0.00,,,0.00,260,WeatherCatV1.20B785,2013-09-27 19:27:00,
2013-09-27 15:28:00,70.7,57.0,30.16,SE,134,0.0,0.0,62,0.00,,,0.00,251,WeatherCatV1.20B785,2013-09-27 19:28:00,
2013-09-27 15:30:00,70.8,57.6,30.16,SE,135,0.0,1.0,63,0.00,,,0.00,257,WeatherCatV1.20B785,2013-09-27 19:30:00,
2013-09-27 15:31:00,70.8,57.6,30.16,SE,135,0.0,1.0,63,0.00,,,0.00,257,WeatherCatV1.20B785,2013-09-27 19:31:00,
2013-09-27 15:32:00,70.9,57.2,30.16,SE,135,0.0,0.0,62,0.00,,,0.00,258,WeatherCatV1.20B785,2013-09-27 19:32:00,
2013-09-27 15:33:00,70.9,57.2,30.16,SE,135,0.0,0.0,62,0.00,,,0.00,297,WeatherCatV1.20B785,2013-09-27 19:33:00,
2013-09-27 15:35:00,71.0,56.9,30.16,SE,126,2.0,5.0,61,0.00,,,0.00,250,WeatherCatV1.20B785,2013-09-27 19:35:00,
2013-09-27 15:36:00,71.1,57.0,30.16,East,94,2.0,5.0,61,0.00,,,0.00,244,WeatherCatV1.20B785,2013-09-27 19:36:00,
2013-09-27 15:37:00,71.1,57.0,30.16,East,96,2.0,5.0,61,0.00,,,0.00,244,WeatherCatV1.20B785,2013-09-27 19:37:00,
2013-09-27 15:38:00,71.1,57.4,30.16,East,100,1.0,5.0,62,0.00,,,0.00,225,WeatherCatV1.20B785,2013-09-27 19:38:00,
2013-09-27 15:39:00,71.1,57.8,30.16,NE,53,2.0,5.0,63,0.00,,,0.00,211,WeatherCatV1.20B785,2013-09-27 19:39:00,
2013-09-27 15:41:00,71.2,58.0,30.16,NE,44,5.0,5.0,63,0.00,,,0.00,190,WeatherCatV1.20B785,2013-09-27 19:41:00,
2013-09-27 15:42:00,71.2,57.5,30.16,East,93,2.0,6.0,62,0.00,,,0.00,185,WeatherCatV1.20B785,2013-09-27 19:42:00,
2013-09-27 15:43:00,71.2,57.0,30.16,ENE,69,1.0,3.0,61,0.00,,,0.00,179,WeatherCatV1.20B785,2013-09-27 19:43:00,
2013-09-27 15:44:00,71.2,57.5,30.16,NE,52,3.0,5.0,62,0.00,,,0.00,181,WeatherCatV1.20B785,2013-09-27 19:44:00,
2013-09-27 15:47:00,71.2,57.0,30.16,East,85,4.0,4.0,61,0.00,,,0.00,141,WeatherCatV1.20B785,2013-09-27 19:47:00,
2013-09-27 15:48:00,71.2,57.5,30.16,NNE,12,2.0,4.0,62,0.00,,,0.00,137,WeatherCatV1.20B785,2013-09-27 19:48:00,
2013-09-27 15:49:00,71.1,57.0,30.16,NE,44,0.0,7.0,61,0.00,,,0.00,135,WeatherCatV1.20B785,2013-09-27 19:49:00,
2013-09-27 15:50:00,71.1,57.0,30.16,NNE,22,0.0,7.0,61,0.00,,,0.00,130,WeatherCatV1.20B785,2013-09-27 19:50:00,
2013-09-27 15:52:00,71.0,56.9,30.16,NE,53,4.0,5.0,61,0.00,,,0.00,127,WeatherCatV1.20B785,2013-09-27 19:52:00,
2013-09-27 15:53:00,70.9,57.2,30.16,ENE,65,1.0,5.0,62,0.00,,,0.00,118,WeatherCatV1.20B785,2013-09-27 19:53:00,
2013-09-27 15:54:00,70.8,57.1,30.16,ENE,60,2.0,3.0,62,0.00,,,0.00,123,WeatherCatV1.20B785,2013-09-27 19:54:00,
2013-09-27 15:55:00,70.8,57.1,30.16,ENE,59,0.0,3.0,62,0.00,,,0.00,123,WeatherCatV1.20B785,2013-09-27 19:55:00,
2013-09-27 15:57:00,70.6,56.9,30.16,ESE,102,2.0,3.0,62,0.00,,,0.00,120,WeatherCatV1.20B785,2013-09-27 19:57:00,
2013-09-27 15:58:00,70.5,56.8,30.16,East,101,1.0,3.0,62,0.00,,,0.00,125,WeatherCatV1.20B785,2013-09-27 19:58:00,
2013-09-27 15:59:00,70.4,57.2,30.16,East,99,1.0,2.0,63,0.00,,,0.00,130,WeatherCatV1.20B785,2013-09-27 19:59:00,
2013-09-27 16:00:00,70.4,57.2,30.16,East,98,1.0,2.0,63,0.00,,,0.00,156,WeatherCatV1.20B785,2013-09-27 20:00:00,
2013-09-27 16:03:00,70.3,57.1,30.16,East,88,2.0,5.0,63,0.00,,,0.00,174,WeatherCatV1.20B785,2013-09-27 20:03:00,
2013-09-27 16:04:00,70.3,56.7,30.16,East,97,1.0,5.0,62,0.00,,,0.00,174,WeatherCatV1.20B785,2013-09-27 20:04:00,
2013-09-27 16:05:00,70.3,56.7,30.16,East,90,0.0,3.0,62,0.00,,,0.00,269,WeatherCatV1.20B785,2013-09-27 20:05:00,
2013-09-27 16:08:00,70.4,56.8,30.16,NE,41,2.0,2.0,62,0.00,,,0.00,183,WeatherCatV1.20B785,2013-09-27 20:08:00,
2013-09-27 16:09:00,70.4,56.8,30.16,NE,50,3.0,4.0,62,0.00,,,0.00,200,WeatherCatV1.20B785,2013-09-27 20:09:00,
2013-09-27 16:10:00,70.5,56.4,30.16,NE,39,4.0,4.0,61,0.00,,,0.00,200,WeatherCatV1.20B785,2013-09-27 20:10:00,
2013-09-27 16:13:00,70.6,56.9,30.16,ENE,60,1.0,3.0,62,0.00,,,0.00,350,WeatherCatV1.20B785,2013-09-27 20:13:00,
2013-09-27 16:14:00,70.6,57.4,30.16,East,82,0.0,2.0,63,0.00,,,0.00,350,WeatherCatV1.20B785,2013-09-27 20:14:00,
2013-09-27 16:15:00,70.6,56.9,30.16,East,91,2.0,4.0,62,0.00,,,0.00,151,WeatherCatV1.20B785,2013-09-27 20:15:00,
2013-09-27 16:16:00,70.7,57.0,30.16,ESE,108,1.0,4.0,62,0.00,,,0.00,243,WeatherCatV1.20B785,2013-09-27 20:16:00,
2013-09-27 16:19:00,70.8,56.2,30.16,East,92,0.0,2.0,60,0.00,,,0.00,476,WeatherCatV1.20B785,2013-09-27 20:19:00,
2013-09-27 16:21:00,70.8,56.2,30.16,East,92,0.0,0.0,60,0.00,,,0.00,468,WeatherCatV1.20B785,2013-09-27 20:21:00,
2013-09-27 16:25:00,71.0,56.4,30.16,East,92,0.0,0.0,60,0.00,,,0.00,471,WeatherCatV1.20B785,2013-09-27 20:25:00,
2013-09-27 16:26:00,71.1,56.0,30.16,ENE,75,1.0,3.0,59,0.00,,,0.00,466,WeatherCatV1.20B785,2013-09-27 20:26:00,
2013-09-27 16:27:00,71.2,56.6,30.16,ENE,73,1.0,3.0,60,0.00,,,0.00,408,WeatherCatV1.20B785,2013-09-27 20:27:00,
2013-09-27 16:30:00,71.5,56.4,30.16,East,91,1.0,5.0,59,0.00,,,0.00,464,WeatherCatV1.20B785,2013-09-27 20:30:00,
2013-09-27 16:31:00,71.5,55.9,30.16,East,89,1.0,2.0,58,0.00,,,0.00,418,WeatherCatV1.20B785,2013-09-27 20:31:00,
2013-09-27 16:32:00,71.5,55.9,30.16,NE,40,2.0,3.0,58,0.00,,,0.00,371,WeatherCatV1.20B785,2013-09-27 20:32:00,
2013-09-27 16:35:00,71.5,56.4,30.16,East,101,1.0,2.0,59,0.00,,,0.00,318,WeatherCatV1.20B785,2013-09-27 20:35:00,
2013-09-27 16:36:00,71.5,56.4,30.16,East,90,3.0,3.0,59,0.00,,,0.00,304,WeatherCatV1.20B785,2013-09-27 20:36:00,
2013-09-27 16:37:00,71.5,56.4,30.16,SE,138,2.0,3.0,59,0.00,,,0.00,304,WeatherCatV1.20B785,2013-09-27 20:37:00,
2013-09-27 16:38:00,71.5,56.4,30.16,East,86,1.0,3.0,59,0.00,,,0.00,179,WeatherCatV1.20B785,2013-09-27 20:38:00,
2013-09-27 16:40:00,71.4,55.8,30.16,SSE,162,2.0,3.0,58,0.00,,,0.00,258,WeatherCatV1.20B785,2013-09-27 20:40:00,
2013-09-27 16:42:00,71.4,55.8,30.16,ENE,71,0.0,3.0,58,0.00,,,0.00,325,WeatherCatV1.20B785,2013-09-27 20:42:00,
2013-09-27 16:43:00,71.4,56.3,30.16,ENE,61,0.0,2.0,59,0.00,,,0.00,318,WeatherCatV1.20B785,2013-09-27 20:43:00,
2013-09-27 16:45:00,71.5,56.4,30.16,NE,55,0.0,1.0,59,0.00,,,0.00,211,WeatherCatV1.20B785,2013-09-27 20:45:00,
2013-09-27 16:47:00,71.6,56.0,30.16,NE,55,0.0,1.0,58,0.00,,,0.00,257,WeatherCatV1.20B785,2013-09-27 20:47:00,
2013-09-27 16:48:00,71.6,56.0,30.16,ENE,65,0.0,1.0,58,0.00,,,0.00,287,WeatherCatV1.20B785,2013-09-27 20:48:00,
2013-09-27 16:51:00,71.6,56.0,30.16,ENE,73,2.0,2.0,58,0.00,,,0.00,276,WeatherCatV1.20B785,2013-09-27 20:51:00,
2013-09-27 16:52:00,71.6,56.0,30.16,ENE,70,0.0,3.0,58,0.00,,,0.00,244,WeatherCatV1.20B785,2013-09-27 20:52:00,
2013-09-27 16:53:00,71.6,56.5,30.16,ENE,70,1.0,3.0,59,0.00,,,0.00,176,WeatherCatV1.20B785,2013-09-27 20:53:00,
2013-09-27 16:54:00,71.6,56.0,30.16,ENE,70,0.0,1.0,58,0.00,,,0.00,134,WeatherCatV1.20B785,2013-09-27 20:54:00,
2013-09-27 16:56:00,71.5,56.4,30.16,East,97,2.0,2.0,59,0.00,,,0.00,88,WeatherCatV1.20B785,2013-09-27 20:56:00,
2013-09-27 16:58:00,71.5,55.9,30.16,East,100,3.0,3.0,58,0.00,,,0.00,109,WeatherCatV1.20B785,2013-09-27 20:58:00,
2013-09-27 16:59:00,71.4,56.3,30.16,East,99,1.0,5.0,59,0.00,,,0.00,107,WeatherCatV1.20B785,2013-09-27 20:59:00,
2013-09-27 17:01:00,71.3,56.2,30.16,East,89,1.0,5.0,59,0.00,,,0.00,183,WeatherCatV1.20B785,2013-09-27 21:01:00,
2013-09-27 17:03:00,71.3,56.2,30.16,ESE,111,0.0,3.0,59,0.00,,,0.00,114,WeatherCatV1.20B785,2013-09-27 21:03:00,
2013-09-27 17:04:00,71.3,56.2,30.16,East,92,1.0,3.0,59,0.00,,,0.00,137,WeatherCatV1.20B785,2013-09-27 21:04:00,
2013-09-27 17:05:00,71.3,56.2,30.16,East,92,0.0,1.0,59,0.00,,,0.00,200,WeatherCatV1.20B785,2013-09-27 21:05:00,
2013-09-27 17:07:00,71.2,56.1,30.16,East,92,1.0,1.0,59,0.00,,,0.00,227,WeatherCatV1.20B785,2013-09-27 21:07:00,
2013-09-27 17:09:00,71.2,56.1,30.16,NE,54,5.0,5.0,59,0.00,,,0.00,214,WeatherCatV1.20B785,2013-09-27 21:09:00,
2013-09-27 17:10:00,71.2,56.6,30.16,ENE,61,4.0,5.0,60,0.00,,,0.00,179,WeatherCatV1.20B785,2013-09-27 21:10:00,
2013-09-27 17:11:00,71.2,56.1,30.16,ENE,75,2.0,4.0,59,0.00,,,0.00,179,WeatherCatV1.20B785,2013-09-27 21:11:00,
2013-09-27 17:12:00,71.1,56.0,30.16,East,86,1.0,4.0,59,0.00,,,0.00,63,WeatherCatV1.20B785,2013-09-27 21:12:00,
2013-09-27 17:14:00,71.0,55.9,30.16,East,79,2.0,2.0,59,0.00,,,0.00,65,WeatherCatV1.20B785,2013-09-27 21:14:00,
2013-09-27 17:16:00,71.0,56.4,30.16,ESE,112,0.0,2.0,60,0.00,,,0.00,223,WeatherCatV1.20B785,2013-09-27 21:16:00,
2013-09-27 17:17:00,70.9,56.8,30.16,East,97,1.0,2.0,61,0.00,,,0.00,125,WeatherCatV1.20B785,2013-09-27 21:17:00,
2013-09-27 17:19:00,70.8,55.8,30.16,ENE,76,1.0,2.0,59,0.00,,,0.00,100,WeatherCatV1.20B785,2013-09-27 21:19:00,
2013-09-27 17:20:00,70.8,56.2,30.16,ENE,72,2.0,2.0,60,0.00,,,0.00,125,WeatherCatV1.20B785,2013-09-27 21:20:00,
2013-09-27 17:21:00,70.8,56.7,30.16,ENE,66,0.0,1.0,61,0.00,,,0.00,181,WeatherCatV1.20B785,2013-09-27 21:21:00,
2013-09-27 17:22:00,70.8,56.2,30.16,ENE,65,0.0,2.0,60,0.00,,,0.00,178,WeatherCatV1.20B785,2013-09-27 21:22:00,
2013-09-27 17:24:00,70.7,55.7,30.16,ENE,65,0.0,1.0,59,0.00,,,0.00,54,WeatherCatV1.20B785,2013-09-27 21:24:00,
2013-09-27 17:25:00,70.7,55.7,30.16,ENE,65,0.0,0.0,59,0.00,,,0.00,54,WeatherCatV1.20B785,2013-09-27 21:25:00,
2013-09-27 17:26:00,70.6,56.0,30.16,ENE,65,0.0,1.0,60,0.00,,,0.00,53,WeatherCatV1.20B785,2013-09-27 21:26:00,
2013-09-27 17:27:00,70.6,56.0,30.16,ENE,65,1.0,1.0,60,0.00,,,0.00,49,WeatherCatV1.20B785,2013-09-27 21:27:00,
2013-09-27 17:30:00,70.5,55.9,30.16,ENE,65,0.0,0.0,60,0.00,,,0.00,54,WeatherCatV1.20B785,2013-09-27 21:30:00,
2013-09-27 17:32:00,70.5,55.9,30.16,NE,54,2.0,3.0,60,0.00,,,0.00,47,WeatherCatV1.20B785,2013-09-27 21:32:00,
2013-09-27 17:33:00,70.4,55.8,30.16,NE,54,0.0,3.0,60,0.00,,,0.00,44,WeatherCatV1.20B785,2013-09-27 21:33:00,
2013-09-27 17:35:00,70.4,55.8,30.16,ENE,58,1.0,2.0,60,0.00,,,0.00,53,WeatherCatV1.20B785,2013-09-27 21:35:00,
2013-09-27 17:36:00,70.4,55.8,30.16,ENE,58,1.0,2.0,60,0.00,,,0.00,53,WeatherCatV1.20B785,2013-09-27 21:36:00,
2013-09-27 17:38:00,70.4,55.8,30.16,ENE,58,1.0,1.0,60,0.00,,,0.00,76,WeatherCatV1.20B785,2013-09-27 21:38:00,
2013-09-27 17:40:00,70.3,55.3,30.16,ENE,58,0.0,1.0,59,0.00,,,0.00,88,WeatherCatV1.20B785,2013-09-27 21:40:00,
2013-09-27 17:42:00,70.3,55.3,30.15,ENE,58,0.0,1.0,59,0.00,,,0.00,74,WeatherCatV1.20B785,2013-09-27 21:42:00,
2013-09-27 17:43:00,70.3,55.3,30.15,ENE,58,0.0,0.0,59,0.00,,,0.00,84,WeatherCatV1.20B785,2013-09-27 21:43:00,
2013-09-27 17:44:00,70.3,55.7,30.15,ENE,58,0.0,0.0,60,0.00,,,0.00,49,WeatherCatV1.20B785,2013-09-27 21:44:00,
2013-09-27 17:45:00,70.3,55.3,30.15,ENE,58,0.0,0.0,59,0.00,,,0.00,40,WeatherCatV1.20B785,2013-09-27 21:45:00,
2013-09-27 17:47:00,70.3,55.7,30.15,ENE,58,0.0,1.0,60,0.00,,,0.00,39,WeatherCatV1.20B785,2013-09-27 21:47:00,
2013-09-27 17:48:00,70.2,55.2,30.15,ENE,58,0.0,1.0,59,0.00,,,0.00,39,WeatherCatV1.20B785,2013-09-27 21:48:00,
2013-09-27 17:49:00,70.2,55.7,30.16,ENE,58,0.0,1.0,60,0.00,,,0.00,39,WeatherCatV1.20B785,2013-09-27 21:49:00,
2013-09-27 17:51:00,70.2,55.7,30.16,ENE,58,0.0,0.0,60,0.00,,,0.00,37,WeatherCatV1.20B785,2013-09-27 21:51:00,
2013-09-27 17:52:00,70.2,55.7,30.16,ENE,58,0.0,0.0,60,0.00,,,0.00,39,WeatherCatV1.20B785,2013-09-27 21:52:00,
2013-09-27 17:53:00,70.2,55.7,30.16,ENE,58,0.0,0.0,60,0.00,,,0.00,39,WeatherCatV1.20B785,2013-09-27 21:53:00,
2013-09-27 17:54:00,70.2,55.7,30.16,ENE,58,0.0,0.0,60,0.00,,,0.00,39,WeatherCatV1.20B785,2013-09-27 21:54:00,
2013-09-27 17:57:00,70.1,55.6,30.16,ENE,58,0.0,0.0,60,0.00,,,0.00,39,WeatherCatV1.20B785,2013-09-27 21:57:00,
2013-09-27 17:58:00,70.1,56.0,30.16,ENE,58,0.0,0.0,61,0.00,,,0.00,39,WeatherCatV1.20B785,2013-09-27 21:58:00,
2013-09-27 17:59:00,70.0,55.9,30.16,ENE,58,0.0,0.0,61,0.00,,,0.00,39,WeatherCatV1.20B785,2013-09-27 21:59:00,
2013-09-27 18:02:00,69.9,55.4,30.16,ENE,68,0.0,1.0,60,0.00,,,0.00,42,WeatherCatV1.20B785,2013-09-27 22:02:00,
2013-09-27 18:03:00,69.8,55.3,30.16,ENE,68,0.0,1.0,60,0.00,,,0.00,42,WeatherCatV1.20B785,2013-09-27 22:03:00,
2013-09-27 18:04:00,69.8,55.7,30.16,ENE,68,0.0,0.0,61,0.00,,,0.00,40,WeatherCatV1.20B785,2013-09-27 22:04:00,
2013-09-27 18:08:00,69.7,56.5,30.16,ENE,68,0.0,0.0,63,0.00,,,0.00,37,WeatherCatV1.20B785,2013-09-27 22:08:00,
2013-09-27 18:09:00,69.7,56.1,30.16,ENE,68,0.0,0.0,62,0.00,,,0.00,35,WeatherCatV1.20B785,2013-09-27 22:09:00,
2013-09-27 18:11:00,69.6,56.0,30.16,ENE,68,0.0,0.0,62,0.00,,,0.00,35,WeatherCatV1.20B785,2013-09-27 22:11:00,
2013-09-27 18:14:00,69.5,56.3,30.16,ENE,68,0.0,0.0,63,0.00,,,0.00,35,WeatherCatV1.20B785,2013-09-27 22:14:00,
2013-09-27 18:15:00,69.5,56.8,30.16,ENE,68,0.0,0.0,64,0.00,,,0.00,37,WeatherCatV1.20B785,2013-09-27 22:15:00,
2013-09-27 18:16:00,69.4,57.1,30.16,ENE,68,0.0,0.0,65,0.00,,,0.00,37,WeatherCatV1.20B785,2013-09-27 22:16:00,
2013-09-27 18:19:00,69.4,57.1,30.16,ENE,68,0.0,0.0,65,0.00,,,0.00,39,WeatherCatV1.20B785,2013-09-27 22:19:00,
2013-09-27 18:20:00,69.3,57.0,30.16,ENE,68,0.0,0.0,65,0.00,,,0.00,39,WeatherCatV1.20B785,2013-09-27 22:20:00,
2013-09-27 18:22:00,69.2,56.5,30.16,ENE,68,0.0,0.0,64,0.00,,,0.00,35,WeatherCatV1.20B785,2013-09-27 22:22:00,
2013-09-27 18:24:00,69.1,57.2,30.16,ENE,68,0.0,0.0,66,0.00,,,0.00,33,WeatherCatV1.20B785,2013-09-27 22:24:00,
2013-09-27 18:25:00,69.1,57.7,30.16,ENE,68,0.0,0.0,67,0.00,,,0.00,32,WeatherCatV1.20B785,2013-09-27 22:25:00,
2013-09-27 18:27:00,69.0,58.0,30.16,ENE,68,0.0,0.0,68,0.00,,,0.00,32,WeatherCatV1.20B785,2013-09-27 22:27:00,
2013-09-27 18:30:00,68.8,57.8,30.16,ENE,68,0.0,0.0,68,0.00,,,0.00,30,WeatherCatV1.20B785,2013-09-27 22:30:00,
2013-09-27 18:31:00,68.7,58.1,30.16,ENE,68,0.0,0.0,69,0.00,,,0.00,28,WeatherCatV1.20B785,2013-09-27 22:31:00,
2013-09-27 18:32:00,68.6,58.0,30.16,ENE,68,0.0,0.0,69,0.00,,,0.00,28,WeatherCatV1.20B785,2013-09-27 22:32:00,
2013-09-27 18:35:00,68.4,58.2,30.16,ENE,68,0.0,0.0,70,0.00,,,0.00,25,WeatherCatV1.20B785,2013-09-27 22:35:00,
2013-09-27 18:36:00,68.3,58.1,30.16,ENE,70,0.0,2.0,70,0.00,,,0.00,23,WeatherCatV1.20B785,2013-09-27 22:36:00,
2013-09-27 18:37:00,68.2,58.0,30.17,ENE,70,0.0,2.0,70,0.00,,,0.00,21,WeatherCatV1.20B785,2013-09-27 22:37:00,
2013-09-27 18:40:00,67.9,58.1,30.17,ENE,70,0.0,0.0,71,0.00,,,0.00,18,WeatherCatV1.20B785,2013-09-27 22:40:00,
2013-09-27 18:41:00,67.8,58.4,30.17,ENE,70,0.0,0.0,72,0.00,,,0.00,18,WeatherCatV1.20B785,2013-09-27 22:41:00,
2013-09-27 18:42:00,67.7,58.3,30.17,ENE,69,0.0,1.0,72,0.00,,,0.00,16,WeatherCatV1.20B785,2013-09-27 22:42:00,
2013-09-27 18:46:00,67.3,58.3,30.17,ENE,69,0.0,0.0,73,0.00,,,0.00,12,WeatherCatV1.20B785,2013-09-27 22:46:00,
2013-09-27 18:47:00,67.1,58.5,30.17,ENE,69,0.0,1.0,74,0.00,,,0.00,12,WeatherCatV1.20B785,2013-09-27 22:47:00,
2013-09-27 18:51:00,66.6,58.0,30.17,NE,34,0.0,1.0,74,0.00,,,0.00,9,WeatherCatV1.20B785,2013-09-27 22:51:00,
2013-09-27 18:52:00,66.5,58.0,30.17,NE,34,0.0,1.0,74,0.00,,,0.00,9,WeatherCatV1.20B785,2013-09-27 22:52:00,
2013-09-27 18:56:00,65.9,57.7,30.17,NW,325,0.0,1.0,75,0.00,,,0.00,7,WeatherCatV1.20B785,2013-09-27 22:56:00,
2013-09-27 18:58:00,65.7,57.9,30.17,NW,325,0.0,1.0,76,0.00,,,0.00,5,WeatherCatV1.20B785,2013-09-27 22:58:00,
2013-09-27 18:59:00,65.6,57.8,30.17,NW,325,0.0,1.0,76,0.00,,,0.00,5,WeatherCatV1.20B785,2013-09-27 22:59:00,
2013-09-27 19:01:00,65.4,57.6,30.17,NW,325,1.0,1.0,76,0.00,,,0.00,0,WeatherCatV1.20B785,2013-09-27 23:01:00,
2013-09-27 19:02:00,65.4,57.6,30.17,NW,325,0.0,1.0,76,0.00,,,0.00,0,WeatherCatV1.20B785,2013-09-27 23:02:00,
2013-09-27 19:04:00,65.2,57.8,30.17,NW,325,0.0,0.0,77,0.00,,,0.00,0,WeatherCatV1.20B785,2013-09-27 23:04:00,
2013-09-27 19:06:00,65.0,57.6,30.17,NW,325,1.0,1.0,77,0.00,,,0.00,0,WeatherCatV1.20B785,2013-09-27 23:06:00,
2013-09-27 19:07:00,64.9,57.9,30.17,NW,325,1.0,1.0,78,0.00,,,0.00,0,WeatherCatV1.20B785,2013-09-27 23:07:00,
2013-09-27 19:08:00,64.8,57.8,30.17,NW,325,1.0,2.0,78,0.00,,,0.00,0,WeatherCatV1.20B785,2013-09-27 23:08:00,
2013-09-27 19:09:00,64.7,57.7,30.17,North,7,0.0,2.0,78,0.00,,,0.00,0,WeatherCatV1.20B785,2013-09-27 23:09:00,
2013-09-27 19:12:00,64.5,57.5,30.17,North,7,0.0,0.0,78,0.00,,,0.00,0,WeatherCatV1.20B785,2013-09-27 23:12:00,
2013-09-27 19:14:00,64.3,57.6,30.17,North,358,0.0,1.0,79,0.00,,,0.00,0,WeatherCatV1.20B785,2013-09-27 23:14:00,
2013-09-27 19:17:00,64.0,57.7,30.17,NNW,346,0.0,1.0,80,0.00,,,0.00,0,WeatherCatV1.20B785,2013-09-27 23:17:00,
2013-09-27 19:19:00,63.8,57.5,30.17,NNW,346,0.0,1.0,80,0.00,,,0.00,0,WeatherCatV1.20B785,2013-09-27 23:19:00,
2013-09-27 19:22:00,63.5,57.6,30.17,NNW,346,1.0,1.0,81,0.00,,,0.00,0,WeatherCatV1.20B785,2013-09-27 23:22:00,
2013-09-27 19:24:00,63.3,57.4,30.17,NNW,346,1.0,1.0,81,0.00,,,0.00,0,WeatherCatV1.20B785,2013-09-27 23:24:00,
2013-09-27 19:25:00,63.2,57.3,30.17,NNW,346,0.0,1.0,81,0.00,,,0.00,0,WeatherCatV1.20B785,2013-09-27 23:25:00,
2013-09-27 19:28:00,62.9,57.0,30.17,NNW,346,0.0,0.0,81,0.00,,,0.00,0,WeatherCatV1.20B785,2013-09-27 23:28:00,
2013-09-27 19:29:00,62.8,56.9,30.17,NNW,346,0.0,0.0,81,0.00,,,0.00,0,WeatherCatV1.20B785,2013-09-27 23:29:00,
2013-09-27 19:30:00,62.7,56.8,30.17,NNW,346,0.0,0.0,81,0.00,,,0.00,0,WeatherCatV1.20B785,2013-09-27 23:30:00,
2013-09-27 19:33:00,62.5,56.9,30.17,NNW,346,0.0,0.0,82,0.00,,,0.00,0,WeatherCatV1.20B785,2013-09-27 23:33:00,
2013-09-27 19:34:00,62.3,56.7,30.17,NNW,346,0.0,0.0,82,0.00,,,0.00,0,WeatherCatV1.20B785,2013-09-27 23:34:00,
2013-09-27 19:35:00,62.3,56.7,30.17,NNW,346,0.0,0.0,82,0.00,,,0.00,0,WeatherCatV1.20B785,2013-09-27 23:35:00,
2013-09-27 19:38:00,62.2,56.6,30.17,NNW,346,0.0,0.0,82,0.00,,,0.00,0,WeatherCatV1.20B785,2013-09-27 23:38:00,
2013-09-27 19:40:00,62.1,56.5,30.17,NNW,346,0.0,0.0,82,0.00,,,0.00,0,WeatherCatV1.20B785,2013-09-27 23:40:00,
2013-09-27 19:41:00,62.1,56.5,30.17,NNW,346,0.0,0.0,82,0.00,,,0.00,0,WeatherCatV1.20B785,2013-09-27 23:41:00,
2013-09-27 19:43:00,61.9,56.3,30.17,NNW,346,0.0,1.0,82,0.00,,,0.00,0,WeatherCatV1.20B785,2013-09-27 23:43:00,
2013-09-27 19:44:00,61.9,56.3,30.17,NNW,346,0.0,1.0,82,0.00,,,0.00,0,WeatherCatV1.20B785,2013-09-27 23:44:00,
2013-09-27 19:45:00,61.8,56.6,30.17,NNW,346,0.0,0.0,83,0.00,,,0.00,0,WeatherCatV1.20B785,2013-09-27 23:45:00,
2013-09-27 19:47:00,61.7,56.5,30.18,NNW,346,0.0,0.0,83,0.00,,,0.00,0,WeatherCatV1.20B785,2013-09-27 23:47:00,
2013-09-27 19:48:00,61.5,56.3,30.17,NNW,346,1.0,2.0,83,0.00,,,0.00,0,WeatherCatV1.20B785,2013-09-27 23:48:00,
2013-09-27 19:49:00,61.5,56.3,30.18,NNW,346,0.0,2.0,83,0.00,,,0.00,0,WeatherCatV1.20B785,2013-09-27 23:49:00,
2013-09-27 19:50:00,61.4,56.2,30.18,NNW,346,0.0,0.0,83,0.00,,,0.00,0,WeatherCatV1.20B785,2013-09-27 23:50:00,
2013-09-27 19:52:00,61.3,56.1,30.18,NNW,346,0.0,0.0,83,0.00,,,0.00,0,WeatherCatV1.20B785,2013-09-27 23:52:00,
2013-09-27 19:53:00,61.2,56.3,30.18,NNW,346,0.0,0.0,84,0.00,,,0.00,0,WeatherCatV1.20B785,2013-09-27 23:53:00,
2013-09-27 19:55:00,61.1,56.2,30.18,NNW,346,0.0,1.0,84,0.00,,,0.00,0,WeatherCatV1.20B785,2013-09-27 23:55:00,
2013-09-27 19:57:00,60.9,56.0,30.18,NNW,346,0.0,0.0,84,0.00,,,0.00,0,WeatherCatV1.20B785,2013-09-27 23:57:00,
2013-09-27 19:59:00,60.8,55.9,30.18,NNW,344,0.0,1.0,84,0.00,,,0.00,0,WeatherCatV1.20B785,2013-09-27 23:59:00,
2013-09-27 20:00:00,60.7,55.8,30.18,NNW,344,0.0,1.0,84,0.00,,,0.00,0,WeatherCatV1.20B785,2013-09-28 00:00:00,
2013-09-27 20:01:00,60.6,55.7,30.18,NNW,346,1.0,1.0,84,0.00,,,0.00,0,WeatherCatV1.20B785,2013-09-28 00:01:00,
2013-09-27 20:02:00,60.5,55.6,30.18,NW,306,1.0,2.0,84,0.00,,,0.00,0,WeatherCatV1.20B785,2013-09-28 00:02:00,
2013-09-27 20:04:00,60.4,55.5,30.18,NW,306,1.0,2.0,84,0.00,,,0.00,0,WeatherCatV1.20B785,2013-09-28 00:04:00,
2013-09-27 20:05:00,60.3,55.8,30.18,WNW,303,0.0,3.0,85,0.00,,,0.00,0,WeatherCatV1.20B785,2013-09-28 00:05:00,
2013-09-27 20:06:00,60.3,55.8,30.18,WNW,303,1.0,3.0,85,0.00,,,0.00,0,WeatherCatV1.20B785,2013-09-28 00:06:00,
2013-09-27 20:08:00,60.1,55.6,30.18,WNW,303,0.0,1.0,85,0.00,,,0.00,0,WeatherCatV1.20B785,2013-09-28 00:08:00,
2013-09-27 20:09:00,60.1,55.6,30.18,WNW,303,1.0,1.0,85,0.00,,,0.00,0,WeatherCatV1.20B785,2013-09-28 00:09:00,
2013-09-27 20:10:00,60.0,55.5,30.18,WNW,303,0.0,1.0,85,0.00,,,0.00,0,WeatherCatV1.20B785,2013-09-28 00:10:00,
2013-09-27 20:11:00,60.0,55.5,30.18,WNW,303,0.0,1.0,85,0.00,,,0.00,0,WeatherCatV1.20B785,2013-09-28 00:11:00,
2013-09-27 20:13:00,59.9,55.4,30.18,WNW,303,0.0,3.0,85,0.00,,,0.00,0,WeatherCatV1.20B785,2013-09-28 00:13:00,
2013-09-27 20:14:00,59.9,55.4,30.18,WNW,303,0.0,0.0,85,0.00,,,0.00,0,WeatherCatV1.20B785,2013-09-28 00:14:00,
2013-09-27 20:16:00,59.8,55.3,30.18,WNW,303,1.0,1.0,85,0.00,,,0.00,0,WeatherCatV1.20B785,2013-09-28 00:16:00,
2013-09-27 20:19:00,59.6,55.1,30.18,WNW,303,0.0,2.0,85,0.00,,,0.00,0,WeatherCatV1.20B785,2013-09-28 00:19:00,
2013-09-27 20:20:00,59.5,55.0,30.19,WNW,303,0.0,0.0,85,0.00,,,0.00,0,WeatherCatV1.20B785,2013-09-28 00:20:00,
2013-09-27 20:21:00,59.5,55.3,30.19,WNW,303,0.0,0.0,86,0.00,,,0.00,0,WeatherCatV1.20B785,2013-09-28 00:21:00,
2013-09-27 20:23:00,59.3,55.1,30.19,WNW,303,0.0,0.0,86,0.00,,,0.00,0,WeatherCatV1.20B785,2013-09-28 00:23:00,
2013-09-27 20:24:00,59.2,55.0,30.19,WNW,303,0.0,0.0,86,0.00,,,0.00,0,WeatherCatV1.20B785,2013-09-28 00:24:00,
2013-09-27 20:26:00,59.0,54.8,30.19,WNW,303,0.0,0.0,86,0.00,,,0.00,0,WeatherCatV1.20B785,2013-09-28 00:26:00,
2013-09-27 20:28:00,58.8,54.6,30.19,WNW,303,2.0,2.0,86,0.00,,,0.00,0,WeatherCatV1.20B785,2013-09-28 00:28:00,
2013-09-27 20:29:00,58.7,54.8,30.19,WNW,303,0.0,2.0,87,0.00,,,0.00,0,WeatherCatV1.20B785,2013-09-28 00:29:00,
2013-09-27 20:31:00,58.5,54.6,30.19,WNW,303,0.0,1.0,87,0.00,,,0.00,0,WeatherCatV1.20B785,2013-09-28 00:31:00,
2013-09-27 20:33:00,58.3,54.4,30.19,WNW,303,0.0,1.0,87,0.00,,,0.00,0,WeatherCatV1.20B785,2013-09-28 00:33:00,
2013-09-27 20:34:00,58.2,54.3,30.19,WNW,303,1.0,1.0,87,0.00,,,0.00,0,WeatherCatV1.20B785,2013-09-28 00:34:00,
2013-09-27 20:36:00,58.1,54.2,30.19,WNW,303,1.0,1.0,87,0.00,,,0.00,0,WeatherCatV1.20B785,2013-09-28 00:36:00,
2013-09-27 20:37:00,58.0,54.5,30.19,NW,305,0.0,2.0,88,0.00,,,0.00,0,WeatherCatV1.20B785,2013-09-28 00:37:00,
2013-09-27 20:39:00,57.9,54.4,30.19,NW,304,0.0,0.0,88,0.00,,,0.00,0,WeatherCatV1.20B785,2013-09-28 00:39:00,
2013-09-27 20:41:00,57.9,54.4,30.19,NW,304,0.0,1.0,88,0.00,,,0.00,0,WeatherCatV1.20B785,2013-09-28 00:41:00,
2013-09-27 20:42:00,57.8,54.3,30.19,NW,304,1.0,1.0,88,0.00,,,0.00,0,WeatherCatV1.20B785,2013-09-28 00:42:00,
2013-09-27 20:45:00,57.7,54.2,30.19,NW,304,1.0,1.0,88,0.00,,,0.00,0,WeatherCatV1.20B785,2013-09-28 00:45:00,
2013-09-27 20:46:00,57.6,54.1,30.19,NW,304,0.0,2.0,88,0.00,,,0.00,0,WeatherCatV1.20B785,2013-09-28 00:46:00,
2013-09-27 20:47:00,57.5,54.0,30.19,NW,304,0.0,1.0,88,0.00,,,0.00,0,WeatherCatV1.20B785,2013-09-28 00:47:00,
2013-09-27 20:50:00,57.4,53.9,30.19,NW,304,0.0,0.0,88,0.00,,,0.00,0,WeatherCatV1.20B785,2013-09-28 00:50:00,
2013-09-27 20:51:00,57.3,53.8,30.19,NW,304,0.0,0.0,88,0.00,,,0.00,0,WeatherCatV1.20B785,2013-09-28 00:51:00,
2013-09-27 20:52:00,57.2,53.7,30.20,NW,304,0.0,0.0,88,0.00,,,0.00,0,WeatherCatV1.20B785,2013-09-28 00:52:00,
2013-09-27 20:53:00,57.2,53.7,30.20,NW,304,0.0,0.0,88,0.00,,,0.00,0,WeatherCatV1.20B785,2013-09-28 00:53:00,
2013-09-27 20:56:00,57.0,53.5,30.20,NW,304,0.0,0.0,88,0.00,,,0.00,0,WeatherCatV1.20B785,2013-09-28 00:56:00,
2013-09-27 20:59:00,56.8,53.3,30.20,NW,304,0.0,0.0,88,0.00,,,0.00,0,WeatherCatV1.20B785,2013-09-28 00:59:00,
2013-09-27 21:02:00,56.7,53.2,30.20,NW,304,0.0,0.0,88,0.00,,,0.00,0,WeatherCatV1.20B785,2013-09-28 01:02:00,
2013-09-27 21:04:00,56.6,53.1,30.20,NW,304,0.0,1.0,88,0.00,,,0.00,0,WeatherCatV1.20B785,2013-09-28 01:04:00,
2013-09-27 21:07:00,56.4,52.9,30.20,NW,304,0.0,0.0,88,0.00,,,0.00,0,WeatherCatV1.20B785,2013-09-28 01:07:00,
2013-09-27 21:09:00,56.2,52.7,30.20,NW,304,0.0,0.0,88,0.00,,,0.00,0,WeatherCatV1.20B785,2013-09-28 01:09:00,
2013-09-27 21:10:00,56.2,52.7,30.20,NW,304,0.0,0.0,88,0.00,,,0.00,0,WeatherCatV1.20B785,2013-09-28 01:10:00,
2013-09-27 21:12:00,56.1,52.6,30.20,NW,304,0.0,0.0,88,0.00,,,0.00,0,WeatherCatV1.20B785,2013-09-28 01:12:00,
2013-09-27 21:13:00,56.0,52.5,30.20,NW,304,0.0,0.0,88,0.00,,,0.00,0,WeatherCatV1.20B785,2013-09-28 01:13:00,
2013-09-27 21:14:00,56.0,52.5,30.20,NW,304,0.0,0.0,88,0.00,,,0.00,0,WeatherCatV1.20B785,2013-09-28 01:14:00,
2013-09-27 21:15:00,55.9,52.4,30.20,NW,304,0.0,0.0,88,0.00,,,0.00,0,WeatherCatV1.20B785,2013-09-28 01:15:00,
2013-09-27 21:16:00,55.9,52.4,30.20,NW,304,0.0,0.0,88,0.00,,,0.00,0,WeatherCatV1.20B785,2013-09-28 01:16:00,
2013-09-27 21:18:00,55.8,52.3,30.20,NW,304,0.0,0.0,88,0.00,,,0.00,0,WeatherCatV1.20B785,2013-09-28 01:18:00,
2013-09-27 21:19:00,55.8,52.3,30.20,NW,304,0.0,2.0,88,0.00,,,0.00,0,WeatherCatV1.20B785,2013-09-28 01:19:00,
2013-09-27 21:20:00,55.7,52.2,30.20,NW,304,1.0,2.0,88,0.00,,,0.00,0,WeatherCatV1.20B785,2013-09-28 01:20:00,
2013-09-27 21:23:00,55.7,52.2,30.20,NW,304,0.0,0.0,88,0.00,,,0.00,0,WeatherCatV1.20B785,2013-09-28 01:23:00,
2013-09-27 21:25:00,55.6,52.1,30.20,NW,304,0.0,0.0,88,0.00,,,0.00,0,WeatherCatV1.20B785,2013-09-28 01:25:00,
2013-09-27 21:28:00,55.5,52.0,30.21,NW,304,0.0,0.0,88,0.00,,,0.00,0,WeatherCatV1.20B785,2013-09-28 01:28:00,
2013-09-27 21:30:00,55.4,51.9,30.21,NW,304,0.0,1.0,88,0.00,,,0.00,0,WeatherCatV1.20B785,2013-09-28 01:30:00,
2013-09-27 21:33:00,55.3,51.8,30.21,NW,304,0.0,0.0,88,0.00,,,0.00,0,WeatherCatV1.20B785,2013-09-28 01:33:00,
2013-09-27 21:35:00,55.2,51.7,30.21,NW,304,0.0,0.0,88,0.00,,,0.00,0,WeatherCatV1.20B785,2013-09-28 01:35:00,
2013-09-27 21:36:00,55.2,51.7,30.21,NW,304,0.0,0.0,88,0.00,,,0.00,0,WeatherCatV1.20B785,2013-09-28 01:36:00,
2013-09-27 21:38:00,55.1,51.6,30.21,NW,304,0.0,0.0,88,0.00,,,0.00,0,WeatherCatV1.20B785,2013-09-28 01:38:00,
2013-09-27 21:41:00,55.0,51.5,30.21,NW,304,0.0,0.0,88,0.00,,,0.00,0,WeatherCatV1.20B785,2013-09-28 01:41:00,
2013-09-27 21:43:00,54.9,51.4,30.21,NW,304,0.0,0.0,88,0.00,,,0.00,0,WeatherCatV1.20B785,2013-09-28 01:43:00,
2013-09-27 21:46:00,54.8,51.3,30.21,NW,304,0.0,0.0,88,0.00,,,0.00,0,WeatherCatV1.20B785,2013-09-28 01:46:00,
2013-09-27 21:47:00,54.8,51.6,30.21,NW,304,0.0,0.0,89,0.00,,,0.00,0,WeatherCatV1.20B785,2013-09-28 01:47:00,
2013-09-27 21:49:00,54.6,51.4,30.21,NW,304,0.0,0.0,89,0.00,,,0.00,0,WeatherCatV1.20B785,2013-09-28 01:49:00,
2013-09-27 21:51:00,54.5,51.3,30.21,NW,304,0.0,0.0,89,0.00,,,0.00,0,WeatherCatV1.20B785,2013-09-28 01:51:00,
2013-09-27 21:52:00,54.4,51.2,30.21,NW,304,0.0,0.0,89,0.00,,,0.00,0,WeatherCatV1.20B785,2013-09-28 01:52:00,
2013-09-27 21:54:00,54.4,50.9,30.21,NW,304,0.0,0.0,88,0.00,,,0.00,0,WeatherCatV1.20B785,2013-09-28 01:54:00,
2013-09-27 21:56:00,54.3,50.8,30.21,NW,304,0.0,0.0,88,0.00,,,0.00,0,WeatherCatV1.20B785,2013-09-28 01:56:00,
2013-09-27 21:58:00,54.2,50.7,30.21,NW,304,0.0,0.0,88,0.00,,,0.00,0,WeatherCatV1.20B785,2013-09-28 01:58:00,
2013-09-27 21:59:00,54.1,50.9,30.21,NW,304,0.0,0.0,89,0.00,,,0.00,0,WeatherCatV1.20B785,2013-09-28 01:59:00,
2013-09-27 22:01:00,54.0,50.8,30.21,NW,304,0.0,0.0,89,0.00,,,0.00,0,WeatherCatV1.20B785,2013-09-28 02:01:00,
2013-09-27 22:02:00,54.0,50.8,30.21,NW,304,0.0,0.0,89,0.00,,,0.00,0,WeatherCatV1.20B785,2013-09-28 02:02:00,
2013-09-27 22:03:00,54.0,50.8,30.21,NW,304,0.0,0.0,89,0.00,,,0.00,0,WeatherCatV1.20B785,2013-09-28 02:03:00,
2013-09-27 22:04:00,53.9,50.7,30.21,NW,304,0.0,0.0,89,0.00,,,0.00,0,WeatherCatV1.20B785,2013-09-28 02:04:00,
2013-09-27 22:05:00,53.9,50.7,30.21,NW,304,0.0,0.0,89,0.00,,,0.00,0,WeatherCatV1.20B785,2013-09-28 02:05:00,
2013-09-27 22:07:00,53.8,50.3,30.21,NW,304,0.0,0.0,88,0.00,,,0.00,0,WeatherCatV1.20B785,2013-09-28 02:07:00,
2013-09-27 22:08:00,53.7,50.2,30.21,NW,304,0.0,0.0,88,0.00,,,0.00,0,WeatherCatV1.20B785,2013-09-28 02:08:00,
2013-09-27 22:09:00,53.7,50.2,30.21,NW,304,0.0,0.0,88,0.00,,,0.00,0,WeatherCatV1.20B785,2013-09-28 02:09:00,
2013-09-27 22:10:00,53.6,50.1,30.21,NW,304,0.0,0.0,88,0.00,,,0.00,0,WeatherCatV1.20B785,2013-09-28 02:10:00,
2013-09-27 22:13:00,53.5,50.3,30.21,NW,304,0.0,0.0,89,0.00,,,0.00,0,WeatherCatV1.20B785,2013-09-28 02:13:00,
2013-09-27 22:15:00,53.4,50.2,30.22,NW,304,0.0,0.0,89,0.00,,,0.00,0,WeatherCatV1.20B785,2013-09-28 02:15:00,
2013-09-27 22:16:00,53.4,50.2,30.22,NW,304,0.0,0.0,89,0.00,,,0.00,0,WeatherCatV1.20B785,2013-09-28 02:16:00,
2013-09-27 22:18:00,53.3,50.1,30.22,NW,304,0.0,0.0,89,0.00,,,0.00,0,WeatherCatV1.20B785,2013-09-28 02:18:00,
2013-09-27 22:19:00,53.3,50.1,30.22,NW,304,0.0,0.0,89,0.00,,,0.00,0,WeatherCatV1.20B785,2013-09-28 02:19:00,
2013-09-27 22:21:00,53.2,50.0,30.22,NW,304,0.0,0.0,89,0.00,,,0.00,0,WeatherCatV1.20B785,2013-09-28 02:21:00,
2013-09-27 22:23:00,53.2,49.7,30.22,NW,304,0.0,0.0,88,0.00,,,0.00,0,WeatherCatV1.20B785,2013-09-28 02:23:00,
2013-09-27 22:24:00,53.1,49.6,30.22,NW,304,0.0,0.0,88,0.00,,,0.00,0,WeatherCatV1.20B785,2013-09-28 02:24:00,
2013-09-27 22:26:00,53.1,49.9,30.22,NW,304,0.0,0.0,89,0.00,,,0.00,0,WeatherCatV1.20B785,2013-09-28 02:26:00,
2013-09-27 22:28:00,53.0,49.5,30.22,NW,304,0.0,0.0,88,0.00,,,0.00,0,WeatherCatV1.20B785,2013-09-28 02:28:00,
2013-09-27 22:29:00,53.0,49.5,30.22,NW,304,0.0,0.0,88,0.00,,,0.00,0,WeatherCatV1.20B785,2013-09-28 02:29:00,
2013-09-27 22:31:00,52.9,49.4,30.22,NW,304,0.0,0.0,88,0.00,,,0.00,0,WeatherCatV1.20B785,2013-09-28 02:31:00,
2013-09-27 22:32:00,52.8,49.3,30.22,NW,304,0.0,0.0,88,0.00,,,0.00,0,WeatherCatV1.20B785,2013-09-28 02:32:00,
2013-09-27 22:34:00,52.8,49.3,30.22,NW,304,0.0,0.0,88,0.00,,,0.00,0,WeatherCatV1.20B785,2013-09-28 02:34:00,
2013-09-27 22:35:00,52.7,49.5,30.22,NW,304,0.0,0.0,89,0.00,,,0.00,0,WeatherCatV1.20B785,2013-09-28 02:35:00,
2013-09-27 22:37:00,52.6,49.5,30.23,NW,304,0.0,0.0,89,0.00,,,0.00,0,WeatherCatV1.20B785,2013-09-28 02:37:00,
2013-09-27 22:38:00,52.6,49.5,30.22,NW,304,0.0,0.0,89,0.00,,,0.00,0,WeatherCatV1.20B785,2013-09-28 02:38:00,
2013-09-27 22:39:00,52.6,49.5,30.22,NW,304,0.0,0.0,89,0.00,,,0.00,0,WeatherCatV1.20B785,2013-09-28 02:39:00,
2013-09-27 22:40:00,52.5,49.3,30.22,NW,304,0.0,0.0,89,0.00,,,0.00,0,WeatherCatV1.20B785,2013-09-28 02:40:00,
2013-09-27 22:42:00,52.4,49.2,30.22,NW,304,0.0,0.0,89,0.00,,,0.00,0,WeatherCatV1.20B785,2013-09-28 02:42:00,
2013-09-27 22:44:00,52.3,48.8,30.22,NW,304,0.0,0.0,88,0.00,,,0.00,0,WeatherCatV1.20B785,2013-09-28 02:44:00,
2013-09-27 22:45:00,52.3,49.2,30.23,NW,304,0.0,0.0,89,0.00,,,0.00,0,WeatherCatV1.20B785,2013-09-28 02:45:00,
2013-09-27 22:47:00,52.2,49.1,30.23,NW,304,0.0,0.0,89,0.00,,,0.00,0,WeatherCatV1.20B785,2013-09-28 02:47:00,
2013-09-27 22:49:00,52.2,48.8,30.23,NW,304,0.0,0.0,88,0.00,,,0.00,0,WeatherCatV1.20B785,2013-09-28 02:49:00,
2013-09-27 22:51:00,52.2,48.8,30.23,NW,304,0.0,0.0,88,0.00,,,0.00,0,WeatherCatV1.20B785,2013-09-28 02:51:00,
2013-09-27 22:52:00,52.1,48.7,30.23,NW,304,0.0,0.0,88,0.00,,,0.00,0,WeatherCatV1.20B785,2013-09-28 02:52:00,
2013-09-27 22:53:00,52.1,48.7,30.23,NW,304,0.0,0.0,88,0.00,,,0.00,0,WeatherCatV1.20B785,2013-09-28 02:53:00,
2013-09-27 22:54:00,52.0,48.6,30.23,NW,304,0.0,0.0,88,0.00,,,0.00,0,WeatherCatV1.20B785,2013-09-28 02:54:00,
2013-09-27 22:56:00,52.0,48.9,30.23,NW,304,0.0,0.0,89,0.00,,,0.00,0,WeatherCatV1.20B785,2013-09-28 02:56:00,
2013-09-27 22:58:00,52.0,48.6,30.23,NW,304,0.0,0.0,88,0.00,,,0.00,0,WeatherCatV1.20B785,2013-09-28 02:58:00,
2013-09-27 22:59:00,51.9,48.5,30.23,NW,304,0.0,0.0,88,0.00,,,0.00,0,WeatherCatV1.20B785,2013-09-28 02:59:00,
2013-09-27 23:00:00,51.9,48.5,30.23,NW,304,0.0,0.0,88,0.00,,,0.00,0,WeatherCatV1.20B785,2013-09-28 03:00:00,
2013-09-27 23:01:00,51.9,48.5,30.23,NW,304,0.0,0.0,88,0.00,,,0.00,0,WeatherCatV1.20B785,2013-09-28 03:01:00,
2013-09-27 23:03:00,51.8,48.4,30.23,NW,304,0.0,0.0,88,0.00,,,0.00,0,WeatherCatV1.20B785,2013-09-28 03:03:00,
2013-09-27 23:04:00,51.8,48.4,30.23,NW,304,0.0,0.0,88,0.00,,,0.00,0,WeatherCatV1.20B785,2013-09-28 03:04:00,
2013-09-27 23:05:00,51.8,48.4,30.23,NW,304,0.0,0.0,88,0.00,,,0.00,0,WeatherCatV1.20B785,2013-09-28 03:05:00,
2013-09-27 23:06:00,51.7,48.3,30.23,NW,304,0.0,0.0,88,0.00,,,0.00,0,WeatherCatV1.20B785,2013-09-28 03:06:00,
2013-09-27 23:08:00,51.7,48.3,30.23,NW,304,0.0,0.0,88,0.00,,,0.00,0,WeatherCatV1.20B785,2013-09-28 03:08:00,
2013-09-27 23:09:00,51.7,48.3,30.23,NW,304,0.0,0.0,88,0.00,,,0.00,0,WeatherCatV1.20B785,2013-09-28 03:09:00,
2013-09-27 23:10:00,51.7,48.3,30.23,NW,304,0.0,0.0,88,0.00,,,0.00,0,WeatherCatV1.20B785,2013-09-28 03:10:00,
2013-09-27 23:11:00,51.7,48.3,30.23,NW,304,0.0,0.0,88,0.00,,,0.00,0,WeatherCatV1.20B785,2013-09-28 03:11:00,
2013-09-27 23:13:00,51.6,48.2,30.23,NW,304,0.0,0.0,88,0.00,,,0.00,0,WeatherCatV1.20B785,2013-09-28 03:13:00,
2013-09-27 23:14:00,51.6,48.2,30.23,NW,304,0.0,0.0,88,0.00,,,0.00,0,WeatherCatV1.20B785,2013-09-28 03:14:00,
2013-09-27 23:17:00,51.5,48.1,30.23,NW,304,0.0,0.0,88,0.00,,,0.00,0,WeatherCatV1.20B785,2013-09-28 03:17:00,
2013-09-27 23:19:00,51.4,48.0,30.23,NW,304,0.0,0.0,88,0.00,,,0.00,0,WeatherCatV1.20B785,2013-09-28 03:19:00,
2013-09-27 23:22:00,51.4,48.0,30.23,NW,304,0.0,0.0,88,0.00,,,0.00,0,WeatherCatV1.20B785,2013-09-28 03:22:00,
2013-09-27 23:24:00,51.3,47.9,30.23,NW,304,0.0,0.0,88,0.00,,,0.00,0,WeatherCatV1.20B785,2013-09-28 03:24:00,
2013-09-27 23:25:00,51.3,47.9,30.23,NW,304,0.0,0.0,88,0.00,,,0.00,0,WeatherCatV1.20B785,2013-09-28 03:25:00,
2013-09-27 23:27:00,51.2,47.8,30.23,NW,304,0.0,0.0,88,0.00,,,0.00,0,WeatherCatV1.20B785,2013-09-28 03:27:00,
2013-09-27 23:29:00,51.1,47.7,30.23,NW,304,0.0,0.0,88,0.00,,,0.00,0,WeatherCatV1.20B785,2013-09-28 03:29:00,
2013-09-27 23:30:00,51.1,47.7,30.23,NW,304,0.0,0.0,88,0.00,,,0.00,0,WeatherCatV1.20B785,2013-09-28 03:30:00,
2013-09-27 23:32:00,51.0,47.6,30.23,NW,304,0.0,0.0,88,0.00,,,0.00,0,WeatherCatV1.20B785,2013-09-28 03:32:00,
2013-09-27 23:33:00,51.0,47.6,30.23,NW,304,0.0,0.0,88,0.00,,,0.00,0,WeatherCatV1.20B785,2013-09-28 03:33:00,
2013-09-27 23:34:00,51.0,47.6,30.23,NW,304,0.0,0.0,88,0.00,,,0.00,0,WeatherCatV1.20B785,2013-09-28 03:34:00,
2013-09-27 23:35:00,51.0,47.6,30.23,NW,304,0.0,0.0,88,0.00,,,0.00,0,WeatherCatV1.20B785,2013-09-28 03:35:00,
2013-09-27 23:36:00,51.0,47.6,30.23,NW,304,0.0,0.0,88,0.00,,,0.00,0,WeatherCatV1.20B785,2013-09-28 03:36:00,
2013-09-27 23:38:00,51.0,47.6,30.23,NW,304,0.0,0.0,88,0.00,,,0.00,0,WeatherCatV1.20B785,2013-09-28 03:38:00,
2013-09-27 23:39:00,51.0,47.6,30.23,NW,304,0.0,0.0,88,0.00,,,0.00,0,WeatherCatV1.20B785,2013-09-28 03:39:00,
2013-09-27 23:40:00,51.0,47.6,30.23,NW,304,0.0,0.0,88,0.00,,,0.00,0,WeatherCatV1.20B785,2013-09-28 03:40:00,
2013-09-27 23:41:00,51.0,47.6,30.23,NW,304,0.0,0.0,88,0.00,,,0.00,0,WeatherCatV1.20B785,2013-09-28 03:41:00,
2013-09-27 23:43:00,51.0,47.6,30.23,NW,304,0.0,0.0,88,0.00,,,0.00,0,WeatherCatV1.20B785,2013-09-28 03:43:00,
2013-09-27 23:45:00,51.0,47.6,30.23,NW,304,0.0,0.0,88,0.00,,,0.00,0,WeatherCatV1.20B785,2013-09-28 03:45:00,
2013-09-27 23:47:00,50.9,47.5,30.23,NW,304,0.0,0.0,88,0.00,,,0.00,0,WeatherCatV1.20B785,2013-09-28 03:47:00,
2013-09-27 23:48:00,50.9,47.5,30.23,NW,304,0.0,0.0,88,0.00,,,0.00,0,WeatherCatV1.20B785,2013-09-28 03:48:00,
2013-09-27 23:49:00,50.9,47.5,30.23,NW,304,0.0,0.0,88,0.00,,,0.00,0,WeatherCatV1.20B785,2013-09-28 03:49:00,
2013-09-27 23:50:00,50.8,47.4,30.23,NW,304,0.0,0.0,88,0.00,,,0.00,0,WeatherCatV1.20B785,2013-09-28 03:50:00,
2013-09-27 23:52:00,50.8,47.4,30.23,NW,304,0.0,0.0,88,0.00,,,0.00,0,WeatherCatV1.20B785,2013-09-28 03:52:00,
2013-09-27 23:53:00,50.8,47.1,30.23,NW,304,0.0,0.0,87,0.00,,,0.00,0,WeatherCatV1.20B785,2013-09-28 03:53:00,
2013-09-27 23:54:00,50.8,47.1,30.23,NW,304,0.0,0.0,87,0.00,,,0.00,0,WeatherCatV1.20B785,2013-09-28 03:54:00,
2013-09-27 23:55:00,50.8,47.1,30.23,NW,304,0.0,0.0,87,0.00,,,0.00,0,WeatherCatV1.20B785,2013-09-28 03:55:00,
2013-09-27 23:56:00,50.9,47.2,30.23,NW,304,0.0,0.0,87,0.00,,,0.00,0,WeatherCatV1.20B785,2013-09-28 03:56:00,
2013-09-27 23:58:00,50.9,47.2,30.23,NW,304,0.0,0.0,87,0.00,,,0.00,0,WeatherCatV1.20B785,2013-09-28 03:58:00,
2013-09-27 23:59:00,50.8,47.1,30.23,NW,304,0.0,0.0,87,0.00,,,0.00,0,WeatherCatV1.20B785,2013-09-28 03:59:00,